Observation data for Colorado City on 12/08/2018      Previous  Date       Current Mesonet Observations  Soil Data  Daily Summary Page  Observations in Plain Language
KCO2 080600Z 02011KT 01/00 A3026 RMK A01 T00090002  RH  095%=      5-min Rain = 0
KCO2 080601Z 02010KT 01/00 A3026 RMK A01 T00090002  RH  095%=      5-min Rain = 0
KCO2 080602Z 03010KT 01/00 A3026 RMK A01 T00090002  RH  095%=      5-min Rain = 0
KCO2 080603Z 03012KT 01/00 A3026 RMK A01 T00090002  RH  095%=      5-min Rain = 0
KCO2 080604Z 03011KT 01/00 A3025 RMK A01 T00090002  RH  095%=      5-min Rain = 0.01
KCO2 080605Z 03011KT 01/00 A3025 RMK A01 T00090002  RH  095%=      5-min Rain = 0
KCO2 080606Z 03009KT 01/00 A3025 RMK A01 T00090002  RH  095%=      5-min Rain = 0
KCO2 080607Z 03011KT 01/00 A3025 RMK A01 T00090003  RH  095%=      5-min Rain = 0
KCO2 080608Z 03011KT 01/00 A3025 RMK A01 T00090002  RH  096%=      5-min Rain = 0
KCO2 080609Z 03011KT 01/00 A3025 RMK A01 T00090002  RH  096%=      5-min Rain = 0
KCO2 080610Z 02010KT 01/00 A3025 RMK A01 T00090003  RH  096%=      5-min Rain = 0
KCO2 080611Z 02008KT 01/00 A3025 RMK A01 T00090003  RH  096%=      5-min Rain = 0
KCO2 080612Z 01009KT 01/00 A3025 RMK A01 T00090003  RH  096%=      5-min Rain = 0
KCO2 080613Z 01008KT 01/00 A3025 RMK A01 T00090003  RH  096%=      5-min Rain = 0.01
KCO2 080614Z 01010KT 01/00 A3025 RMK A01 T00090003  RH  096%=      5-min Rain = 0
KCO2 080615Z 01008KT 01/00 A3025 RMK A01 T00080003  RH  096%=      5-min Rain = 0
KCO2 080616Z 01010KT 01/00 A3025 RMK A01 T00080002  RH  096%=      5-min Rain = 0
KCO2 080617Z 01011KT 01/00 A3025 RMK A01 T00080002  RH  096%=      5-min Rain = 0
KCO2 080618Z 01010KT 01/00 A3025 RMK A01 T00070002  RH  096%=      5-min Rain = 0
KCO2 080619Z 02011KT 01/00 A3026 RMK A01 T00080002  RH  096%=      5-min Rain = 0
KCO2 080620Z 01011KT 01/00 A3026 RMK A01 T00070002  RH  096%=      5-min Rain = 0
KCO2 080621Z 01010KT 01/00 A3026 RMK A01 T00070002  RH  096%=      5-min Rain = 0
KCO2 080622Z 01008KT 01/00 A3026 RMK A01 T00080002  RH  096%=      5-min Rain = 0
KCO2 080623Z 01009KT 01/00 A3026 RMK A01 T00080002  RH  096%=      5-min Rain = 0
KCO2 080624Z 01011KT 01/00 A3026 RMK A01 T00070002  RH  096%=      5-min Rain = 0
KCO2 080625Z 01010KT 01/00 A3026 RMK A01 T00070002  RH  096%=      5-min Rain = 0
KCO2 080626Z 01010KT 01/00 A3026 RMK A01 T00070002  RH  096%=      5-min Rain = 0
KCO2 080627Z 01011KT 01/00 A3026 RMK A01 T00070002  RH  096%=      5-min Rain = 0
KCO2 080628Z 01011KT 01/00 A3026 RMK A01 T00070002  RH  096%=      5-min Rain = 0
KCO2 080629Z 01010KT 01/00 A3026 RMK A01 T00070001  RH  096%=      5-min Rain = 0
KCO2 080630Z 02009KT 01/00 A3026 RMK A01 T00070002  RH  096%=      5-min Rain = 0
KCO2 080631Z 02010KT 01/00 A3026 RMK A01 T00070002  RH  096%=      5-min Rain = 0
KCO2 080632Z 01009KT 01/00 A3026 RMK A01 T00070002  RH  096%=      5-min Rain = 0
KCO2 080633Z 01008KT 01/00 A3026 RMK A01 T00070002  RH  096%=      5-min Rain = 0
KCO2 080634Z 01007KT 01/00 A3026 RMK A01 T00070002  RH  096%=      5-min Rain = 0
KCO2 080635Z 01011KT 01/00 A3026 RMK A01 T00070002  RH  096%=      5-min Rain = 0.01
KCO2 080636Z 02011KT 01/00 A3026 RMK A01 T00070002  RH  096%=      5-min Rain = 0
KCO2 080637Z 01009KT 01/00 A3026 RMK A01 T00070002  RH  096%=      5-min Rain = 0
KCO2 080638Z 00008KT 01/00 A3026 RMK A01 T00070002  RH  096%=      5-min Rain = 0
KCO2 080639Z 02009KT 01/00 A3026 RMK A01 T00070002  RH  096%=      5-min Rain = 0.01
KCO2 080640Z 01006KT 01/00 A3026 RMK A01 T00070002  RH  096%=      5-min Rain = 0
KCO2 080641Z 36007KT 01/00 A3026 RMK A01 T00070002  RH  097%=      5-min Rain = 0
KCO2 080642Z 01008KT 01/00 A3026 RMK A01 T00070002  RH  097%=      5-min Rain = 0
KCO2 080643Z 01007KT 01/00 A3026 RMK A01 T00070002  RH  097%=      5-min Rain = 0.01
KCO2 080644Z 01009KT 01/00 A3026 RMK A01 T00070002  RH  097%=      5-min Rain = 0
KCO2 080645Z 01010KT 01/00 A3026 RMK A01 T00070002  RH  097%=      5-min Rain = 0
KCO2 080646Z 01009KT 01/00 A3026 RMK A01 T00060002  RH  097%=      5-min Rain = 0
KCO2 080647Z 01006KT 01/00 A3026 RMK A01 T00060002  RH  097%=      5-min Rain = 0
KCO2 080648Z 01006KT 01/00 A3026 RMK A01 T00060002  RH  097%=      5-min Rain = 0.01
KCO2 080649Z 00007KT 01/00 A3026 RMK A01 T00070002  RH  097%=      5-min Rain = 0
KCO2 080650Z 01008KT 01/00 A3026 RMK A01 T00070002  RH  097%=      5-min Rain = 0
KCO2 080651Z 01008KT 01/00 A3026 RMK A01 T00070002  RH  097%=      5-min Rain = 0
KCO2 080652Z 00008KT 01/00 A3026 RMK A01 T00070002  RH  097%=      5-min Rain = 0
KCO2 080653Z 01010KT 01/00 A3026 RMK A01 T00060002  RH  097%=      5-min Rain = 0.01
KCO2 080654Z 01011KT 01/00 A3026 RMK A01 T00060002  RH  097%=      5-min Rain = 0
KCO2 080655Z 01011KT 01/00 A3026 RMK A01 T00060001  RH  097%=      5-min Rain = 0
KCO2 080656Z 01010KT 01/00 A3026 RMK A01 T00060001  RH  097%=      5-min Rain = 0
KCO2 080657Z 01010KT 01/00 A3026 RMK A01 T00060001  RH  097%=      5-min Rain = 0
KCO2 080658Z 01010KT 01/00 A3026 RMK A01 T00060002  RH  097%=      5-min Rain = 0.01
KCO2 080659Z 01008KT 01/00 A3026 RMK A01 T00060001  RH  097%=      5-min Rain = 0
KCO2 080700Z 01009KT 01/00 A3026 RMK A01 T00060001  RH  097%=      5-min Rain = 0
KCO2 080701Z 01009KT 01/00 A3026 RMK A01 T00060002  RH  097%=      5-min Rain = 0
KCO2 080702Z 01011KT 01/00 A3026 RMK A01 T00060001  RH  097%=      5-min Rain = 0
KCO2 080703Z 01009KT 01/00 A3026 RMK A01 T00060002  RH  097%=      5-min Rain = 0
KCO2 080704Z 01008KT 01/00 A3026 RMK A01 T00060001  RH  097%=      5-min Rain = 0.01
KCO2 080705Z 01010KT 01/00 A3026 RMK A01 T00060001  RH  097%=      5-min Rain = 0
KCO2 080706Z 01011KT 01/00 A3026 RMK A01 T00060002  RH  097%=      5-min Rain = 0
KCO2 080707Z 01011KT 01/00 A3026 RMK A01 T00060001  RH  097%=      5-min Rain = 0
KCO2 080708Z 01009KT 01/00 A3026 RMK A01 T00060001  RH  097%=      5-min Rain = 0
KCO2 080709Z 02010KT 01/00 A3026 RMK A01 T00060002  RH  097%=      5-min Rain = 0
KCO2 080710Z 02011KT 01/00 A3026 RMK A01 T00070002  RH  097%=      5-min Rain = 0
KCO2 080711Z 01009KT 01/00 A3026 RMK A01 T00060002  RH  097%=      5-min Rain = 0.01
KCO2 080712Z 02007KT 01/00 A3026 RMK A01 T00070002  RH  097%=      5-min Rain = 0
KCO2 080713Z 02008KT 01/00 A3026 RMK A01 T00070002  RH  097%=      5-min Rain = 0
KCO2 080714Z 01006KT 01/00 A3026 RMK A01 T00060002  RH  097%=      5-min Rain = 0
KCO2 080715Z 01005KT 01/00 A3026 RMK A01 T00070002  RH  097%=      5-min Rain = 0
KCO2 080716Z 01008KT 01/00 A3026 RMK A01 T00070002  RH  097%=      5-min Rain = 0
KCO2 080717Z 01007KT 01/00 A3026 RMK A01 T00070002  RH  097%=      5-min Rain = 0
KCO2 080718Z 01008KT 01/00 A3026 RMK A01 T00070002  RH  097%=      5-min Rain = 0
KCO2 080719Z 01007KT 01/00 A3026 RMK A01 T00070002  RH  097%=      5-min Rain = 0
KCO2 080720Z 02008KT 01/00 A3026 RMK A01 T00070002  RH  097%=      5-min Rain = 0.01
KCO2 080721Z 02008KT 01/00 A3026 RMK A01 T00070003  RH  097%=      5-min Rain = 0
KCO2 080722Z 01009KT 01/00 A3026 RMK A01 T00070002  RH  097%=      5-min Rain = 0
KCO2 080723Z 01008KT 01/00 A3026 RMK A01 T00070002  RH  097%=      5-min Rain = 0.01
KCO2 080724Z 01012KT 01/00 A3026 RMK A01 T00060002  RH  097%=      5-min Rain = 0
KCO2 080725Z 01010KT 01/00 A3025 RMK A01 T00070002  RH  097%=      5-min Rain = 0
KCO2 080726Z 01009KT 01/00 A3025 RMK A01 T00060002  RH  097%=      5-min Rain = 0.01
KCO2 080727Z 01009KT 01/00 A3025 RMK A01 T00060001  RH  097%=      5-min Rain = 0
KCO2 080728Z 01009KT 01/00 A3025 RMK A01 T00060001  RH  097%=      5-min Rain = 0.01
KCO2 080729Z 02011KT 01/00 A3025 RMK A01 T00060001  RH  097%=      5-min Rain = 0
KCO2 080730Z 01010KT 01/00 A3025 RMK A01 T00060001  RH  097%=      5-min Rain = 0
KCO2 080731Z 01010KT 01/00 A3025 RMK A01 T00060002  RH  097%=      5-min Rain = 0.01
KCO2 080732Z 01010KT 01/00 A3025 RMK A01 T00060002  RH  097%=      5-min Rain = 0
KCO2 080733Z 01010KT 01/00 A3025 RMK A01 T00060002  RH  097%=      5-min Rain = 0
KCO2 080734Z 01009KT 01/00 A3025 RMK A01 T00060001  RH  097%=      5-min Rain = 0
KCO2 080735Z 01010KT 01/00 A3025 RMK A01 T00060002  RH  097%=      5-min Rain = 0
KCO2 080736Z 01009KT 01/00 A3025 RMK A01 T00060001  RH  097%=      5-min Rain = 0
KCO2 080737Z 01010KT 01/00 A3025 RMK A01 T00060002  RH  097%=      5-min Rain = 0
KCO2 080738Z 01010KT 01/00 A3025 RMK A01 T00060001  RH  097%=      5-min Rain = 0
KCO2 080739Z 02010KT 01/00 A3025 RMK A01 T00060002  RH  097%=      5-min Rain = 0.01
KCO2 080740Z 01011KT 01/00 A3025 RMK A01 T00070002  RH  097%=      5-min Rain = 0
KCO2 080741Z 01011KT 01/00 A3025 RMK A01 T00070002  RH  097%=      5-min Rain = 0
KCO2 080742Z 01011KT 01/00 A3025 RMK A01 T00060002  RH  097%=      5-min Rain = 0
KCO2 080743Z 01011KT 01/00 A3025 RMK A01 T00070002  RH  097%=      5-min Rain = 0
KCO2 080744Z 01012KT 01/00 A3025 RMK A01 T00070002  RH  097%=      5-min Rain = 0
KCO2 080745Z 01013KT 01/00 A3025 RMK A01 T00070002  RH  097%=      5-min Rain = 0
KCO2 080746Z 01013KT 01/00 A3025 RMK A01 T00060002  RH  097%=      5-min Rain = 0
KCO2 080747Z 02012KT 01/00 A3025 RMK A01 T00070002  RH  097%=      5-min Rain = 0
KCO2 080748Z 02009KT 01/00 A3025 RMK A01 T00060001  RH  097%=      5-min Rain = 0
KCO2 080749Z 01010KT 01/00 A3025 RMK A01 T00070002  RH  097%=      5-min Rain = 0.01
KCO2 080750Z 02011KT 01/00 A3025 RMK A01 T00070002  RH  097%=      5-min Rain = 0
KCO2 080751Z 01010KT 01/00 A3025 RMK A01 T00070002  RH  097%=      5-min Rain = 0
KCO2 080752Z 01007KT 01/00 A3025 RMK A01 T00070002  RH  097%=      5-min Rain = 0
KCO2 080753Z 01008KT 01/00 A3025 RMK A01 T00070002  RH  097%=      5-min Rain = 0
KCO2 080754Z 01009KT 01/00 A3025 RMK A01 T00070002  RH  097%=      5-min Rain = 0
KCO2 080755Z 00008KT 01/00 A3025 RMK A01 T00070002  RH  097%=      5-min Rain = 0
KCO2 080756Z 01009KT 01/00 A3025 RMK A01 T00070003  RH  097%=      5-min Rain = 0
KCO2 080757Z 01008KT 01/00 A3025 RMK A01 T00070002  RH  097%=      5-min Rain = 0
KCO2 080758Z 00007KT 01/00 A3025 RMK A01 T00070002  RH  097%=      5-min Rain = 0
KCO2 080759Z 00006KT 01/00 A3025 RMK A01 T00070002  RH  097%=      5-min Rain = 0
KCO2 080800Z 36006KT 01/00 A3025 RMK A01 T00070003  RH  097%=      5-min Rain = 0
KCO2 080801Z 36008KT 01/00 A3025 RMK A01 T00070003  RH  097%=      5-min Rain = 0.01
KCO2 080802Z 36009KT 01/00 A3025 RMK A01 T00070003  RH  097%=      5-min Rain = 0
KCO2 080803Z 00010KT 01/00 A3025 RMK A01 T00080003  RH  097%=      5-min Rain = 0
KCO2 080804Z 01010KT 01/00 A3025 RMK A01 T00080003  RH  097%=      5-min Rain = 0
KCO2 080805Z 01008KT 01/00 A3025 RMK A01 T00080003  RH  097%=      5-min Rain = 0
KCO2 080806Z 00008KT 01/00 A3025 RMK A01 T00080003  RH  097%=      5-min Rain = 0
KCO2 080807Z 01010KT 01/00 A3025 RMK A01 T00080003  RH  097%=      5-min Rain = 0
KCO2 080808Z 01009KT 01/00 A3025 RMK A01 T00080003  RH  097%=      5-min Rain = 0
KCO2 080809Z 01010KT 01/00 A3025 RMK A01 T00080003  RH  097%=      5-min Rain = 0
KCO2 080810Z 00008KT 01/00 A3025 RMK A01 T00080003  RH  097%=      5-min Rain = 0
KCO2 080811Z 00009KT 01/00 A3025 RMK A01 T00080003  RH  097%=      5-min Rain = 0
KCO2 080812Z 00011KT 01/00 A3025 RMK A01 T00080003  RH  097%=      5-min Rain = 0
KCO2 080813Z 01010KT 01/00 A3025 RMK A01 T00080003  RH  097%=      5-min Rain = 0
KCO2 080814Z 01011KT 01/00 A3025 RMK A01 T00070002  RH  097%=      5-min Rain = 0
KCO2 080815Z 01011KT 01/00 A3025 RMK A01 T00070002  RH  097%=      5-min Rain = 0
KCO2 080816Z 01009KT 01/00 A3025 RMK A01 T00070002  RH  096%=      5-min Rain = 0
KCO2 080817Z 01008KT 01/00 A3025 RMK A01 T00070002  RH  096%=      5-min Rain = 0
KCO2 080818Z 00008KT 01/00 A3025 RMK A01 T00070002  RH  096%=      5-min Rain = 0
KCO2 080819Z 01008KT 01/00 A3025 RMK A01 T00070002  RH  096%=      5-min Rain = 0
KCO2 080820Z 36007KT 01/00 A3025 RMK A01 T00070002  RH  096%=      5-min Rain = 0
KCO2 080821Z 00009KT 01/00 A3025 RMK A01 T00070002  RH  096%=      5-min Rain = 0
KCO2 080822Z 00010KT 01/00 A3025 RMK A01 T00070002  RH  096%=      5-min Rain = 0
KCO2 080823Z 00010KT 01/00 A3025 RMK A01 T00070002  RH  096%=      5-min Rain = 0
KCO2 080824Z 01010KT 01/00 A3025 RMK A01 T00070002  RH  096%=      5-min Rain = 0.01
KCO2 080825Z 01014KT 01/00 A3025 RMK A01 T00070002  RH  096%=      5-min Rain = 0
KCO2 080826Z 01013KT 01/00 A3024 RMK A01 T00070002  RH  096%=      5-min Rain = 0
KCO2 080827Z 01012KT 01/00 A3024 RMK A01 T00070001  RH  096%=      5-min Rain = 0
KCO2 080828Z 01010KT 01/00 A3024 RMK A01 T00070001  RH  096%=      5-min Rain = 0
KCO2 080829Z 01010KT 01/00 A3024 RMK A01 T00070002  RH  096%=      5-min Rain = 0
KCO2 080830Z 01009KT 01/00 A3024 RMK A01 T00070002  RH  096%=      5-min Rain = 0
KCO2 080831Z 01011KT 01/00 A3024 RMK A01 T00080002  RH  096%=      5-min Rain = 0
KCO2 080832Z 01012KT 01/00 A3024 RMK A01 T00070002  RH  096%=      5-min Rain = 0
KCO2 080833Z 01012KT 01/00 A3024 RMK A01 T00070002  RH  096%=      5-min Rain = 0
KCO2 080834Z 01009KT 01/00 A3024 RMK A01 T00080002  RH  096%=      5-min Rain = 0
KCO2 080835Z 02011KT 01/00 A3024 RMK A01 T00080002  RH  096%=      5-min Rain = 0
KCO2 080836Z 01011KT 01/00 A3024 RMK A01 T00070001  RH  096%=      5-min Rain = 0
KCO2 080837Z 01012KT 01/00 A3024 RMK A01 T00070001  RH  096%=      5-min Rain = 0
KCO2 080838Z 01013KT 01/00 A3024 RMK A01 T00070001  RH  096%=      5-min Rain = 0
KCO2 080839Z 01010KT 01/00 A3024 RMK A01 T00070001  RH  096%=      5-min Rain = 0
KCO2 080840Z 01012KT 01/00 A3024 RMK A01 T00070001  RH  096%=      5-min Rain = 0
KCO2 080841Z 02010KT 01/00 A3024 RMK A01 T00070001  RH  096%=      5-min Rain = 0
KCO2 080842Z 02011KT 01/00 A3024 RMK A01 T00070001  RH  096%=      5-min Rain = 0
KCO2 080843Z 02013KT 01/00 A3024 RMK A01 T00070001  RH  096%=      5-min Rain = 0
KCO2 080844Z 02014KT 01/00 A3024 RMK A01 T00070000  RH  096%=      5-min Rain = 0
KCO2 080845Z 02015KT 01/00 A3024 RMK A01 T00070000  RH  095%=      5-min Rain = 0
KCO2 080846Z 02014KT 01/M00 A3024 RMK A01 T00071001  RH  095%=      5-min Rain = 0
KCO2 080847Z 03014KT 01/M00 A3024 RMK A01 T00071001  RH  095%=      5-min Rain = 0
KCO2 080848Z 03013KT 01/M00 A3024 RMK A01 T00061001  RH  095%=      5-min Rain = 0
KCO2 080849Z 03012KT 01/M00 A3024 RMK A01 T00061001  RH  095%=      5-min Rain = 0
KCO2 080850Z 02011KT 01/M00 A3024 RMK A01 T00071001  RH  095%=      5-min Rain = 0.01
KCO2 080851Z 02011KT 01/M00 A3024 RMK A01 T00071001  RH  095%=      5-min Rain = 0
KCO2 080852Z 02011KT 01/M00 A3024 RMK A01 T00071001  RH  095%=      5-min Rain = 0
KCO2 080853Z 02011KT 01/M00 A3024 RMK A01 T00061001  RH  095%=      5-min Rain = 0
KCO2 080854Z 02010KT 01/M00 A3024 RMK A01 T00071001  RH  095%=      5-min Rain = 0
KCO2 080855Z 02009KT 01/00 A3024 RMK A01 T000700-0  RH  095%=      5-min Rain = 0
KCO2 080856Z 02012KT 01/00 A3024 RMK A01 T000600-0  RH  095%=      5-min Rain = 0
KCO2 080857Z 02010KT 01/M00 A3024 RMK A01 T00061001  RH  095%=      5-min Rain = 0
KCO2 080858Z 02009KT 01/00 A3024 RMK A01 T000600-0  RH  095%=      5-min Rain = 0
KCO2 080859Z 02009KT 01/00 A3024 RMK A01 T000700-0  RH  095%=      5-min Rain = 0
KCO2 080900Z 02011KT 01/00 A3024 RMK A01 T000700-0  RH  095%=      5-min Rain = 0
KCO2 080901Z 01011KT 01/00 A3024 RMK A01 T000700-0  RH  095%=      5-min Rain = 0
KCO2 080902Z 02010KT 01/00 A3024 RMK A01 T000600-0  RH  095%=      5-min Rain = 0
KCO2 080903Z 02009KT 01/00 A3024 RMK A01 T000600-0  RH  096%=      5-min Rain = 0
KCO2 080904Z 02010KT 01/00 A3024 RMK A01 T00070000  RH  096%=      5-min Rain = 0
KCO2 080905Z 01012KT 01/00 A3024 RMK A01 T00060000  RH  096%=      5-min Rain = 0
KCO2 080906Z 00010KT 01/00 A3024 RMK A01 T000600-0  RH  096%=      5-min Rain = 0
KCO2 080907Z 01012KT 01/00 A3024 RMK A01 T000600-0  RH  096%=      5-min Rain = 0.01
KCO2 080908Z 01009KT 01/00 A3024 RMK A01 T000600-0  RH  096%=      5-min Rain = 0
KCO2 080909Z 01011KT 01/00 A3024 RMK A01 T000600-0  RH  096%=      5-min Rain = 0
KCO2 080910Z 01010KT 01/00 A3024 RMK A01 T000600-0  RH  096%=      5-min Rain = 0
KCO2 080911Z 01007KT 01/M00 A3024 RMK A01 T00061001  RH  096%=      5-min Rain = 0
KCO2 080912Z 01009KT 01/00 A3024 RMK A01 T000600-0  RH  096%=      5-min Rain = 0
KCO2 080913Z 03011KT 01/00 A3024 RMK A01 T000600-0  RH  096%=      5-min Rain = 0
KCO2 080914Z 02010KT 01/00 A3024 RMK A01 T000600-0  RH  096%=      5-min Rain = 0.01
KCO2 080915Z 02010KT 01/00 A3024 RMK A01 T000600-0  RH  096%=      5-min Rain = 0
KCO2 080916Z 03011KT 01/00 A3024 RMK A01 T00060000  RH  096%=      5-min Rain = 0
KCO2 080917Z 02011KT 01/00 A3024 RMK A01 T000600-0  RH  096%=      5-min Rain = 0
KCO2 080918Z 02009KT 01/00 A3024 RMK A01 T000600-0  RH  096%=      5-min Rain = 0
KCO2 080919Z 02010KT 01/00 A3024 RMK A01 T000600-0  RH  096%=      5-min Rain = 0
KCO2 080920Z 02009KT 01/00 A3024 RMK A01 T000600-0  RH  096%=      5-min Rain = 0
KCO2 080921Z 02009KT 01/00 A3024 RMK A01 T000600-0  RH  096%=      5-min Rain = 0
KCO2 080922Z 01007KT 01/00 A3024 RMK A01 T00060000  RH  096%=      5-min Rain = 0.01
KCO2 080923Z 02006KT 01/00 A3024 RMK A01 T00060000  RH  096%=      5-min Rain = 0
KCO2 080924Z 02008KT 01/00 A3024 RMK A01 T00060000  RH  096%=      5-min Rain = 0
KCO2 080925Z 02010KT 01/00 A3025 RMK A01 T00060000  RH  096%=      5-min Rain = 0
KCO2 080926Z 02007KT 01/00 A3025 RMK A01 T00060000  RH  096%=      5-min Rain = 0
KCO2 080927Z 01010KT 01/00 A3025 RMK A01 T00060000  RH  096%=      5-min Rain = 0
KCO2 080928Z 01011KT 01/00 A3025 RMK A01 T000600-0  RH  096%=      5-min Rain = 0
KCO2 080929Z 02010KT 01/00 A3025 RMK A01 T000600-0  RH  096%=      5-min Rain = 0
KCO2 080930Z 02010KT 01/M00 A3025 RMK A01 T00061001  RH  096%=      5-min Rain = 0.01
KCO2 080931Z 01009KT 01/M00 A3025 RMK A01 T00061001  RH  096%=      5-min Rain = 0
KCO2 080932Z 01010KT 01/M00 A3025 RMK A01 T00061001  RH  096%=      5-min Rain = 0
KCO2 080933Z 01010KT 01/M00 A3025 RMK A01 T00051001  RH  096%=      5-min Rain = 0
KCO2 080934Z 02009KT 01/M00 A3025 RMK A01 T00051001  RH  096%=      5-min Rain = 0
KCO2 080935Z 01010KT 01/M00 A3025 RMK A01 T00061001  RH  096%=      5-min Rain = 0
KCO2 080936Z 01008KT 01/M00 A3025 RMK A01 T00061001  RH  096%=      5-min Rain = 0
KCO2 080937Z 01010KT 01/M00 A3025 RMK A01 T00051001  RH  096%=      5-min Rain = 0
KCO2 080938Z 01008KT 01/M00 A3025 RMK A01 T00061001  RH  096%=      5-min Rain = 0
KCO2 080939Z 01010KT 01/M00 A3025 RMK A01 T00061001  RH  096%=      5-min Rain = 0
KCO2 080940Z 01010KT 01/M00 A3025 RMK A01 T00051001  RH  096%=      5-min Rain = 0
KCO2 080941Z 01011KT 01/M00 A3025 RMK A01 T00061001  RH  096%=      5-min Rain = 0
KCO2 080942Z 01009KT 01/M00 A3025 RMK A01 T00061001  RH  096%=      5-min Rain = 0
KCO2 080943Z 01010KT 01/M00 A3025 RMK A01 T00061001  RH  096%=      5-min Rain = 0
KCO2 080944Z 01010KT 01/M00 A3025 RMK A01 T00061001  RH  096%=      5-min Rain = 0.01
KCO2 080945Z 02009KT 01/M00 A3025 RMK A01 T00051001  RH  096%=      5-min Rain = 0
KCO2 080946Z 01008KT 01/M00 A3025 RMK A01 T00051001  RH  096%=      5-min Rain = 0
KCO2 080947Z 00009KT 01/00 A3025 RMK A01 T000600-0  RH  096%=      5-min Rain = 0
KCO2 080948Z 01009KT 01/00 A3025 RMK A01 T00060000  RH  096%=      5-min Rain = 0
KCO2 080949Z 01009KT 01/00 A3025 RMK A01 T000500-0  RH  096%=      5-min Rain = 0
KCO2 080950Z 01008KT 01/00 A3025 RMK A01 T000600-0  RH  096%=      5-min Rain = 0
KCO2 080951Z 01008KT 01/00 A3025 RMK A01 T000600-0  RH  096%=      5-min Rain = 0.01
KCO2 080952Z 02009KT 01/00 A3024 RMK A01 T00060000  RH  096%=      5-min Rain = 0
KCO2 080953Z 02010KT 01/00 A3025 RMK A01 T000600-0  RH  096%=      5-min Rain = 0
KCO2 080954Z 02009KT 01/00 A3024 RMK A01 T00060000  RH  096%=      5-min Rain = 0
KCO2 080955Z 01010KT 01/00 A3024 RMK A01 T000500-0  RH  096%=      5-min Rain = 0
KCO2 080956Z 02009KT 01/00 A3024 RMK A01 T000500-0  RH  096%=      5-min Rain = 0
KCO2 080957Z 02010KT 01/M00 A3024 RMK A01 T00051001  RH  096%=      5-min Rain = 0
KCO2 080958Z 02010KT 01/M00 A3024 RMK A01 T00051001  RH  096%=      5-min Rain = 0
KCO2 080959Z 01009KT 01/M00 A3024 RMK A01 T00051001  RH  096%=      5-min Rain = 0
KCO2 081000Z 01011KT 01/00 A3024 RMK A01 T000500-0  RH  096%=      5-min Rain = 0
KCO2 081001Z 01011KT 01/00 A3024 RMK A01 T000500-0  RH  096%=      5-min Rain = 0
KCO2 081002Z 02008KT 01/M00 A3024 RMK A01 T00051001  RH  096%=      5-min Rain = 0.01
KCO2 081003Z 02010KT 01/M00 A3024 RMK A01 T00051001  RH  096%=      5-min Rain = 0
KCO2 081004Z 02011KT 01/00 A3024 RMK A01 T000500-0  RH  096%=      5-min Rain = 0
KCO2 081005Z 02010KT 01/M00 A3024 RMK A01 T00051001  RH  096%=      5-min Rain = 0
KCO2 081006Z 02011KT 01/M00 A3024 RMK A01 T00051001  RH  096%=      5-min Rain = 0
KCO2 081007Z 01010KT 01/M00 A3024 RMK A01 T00051001  RH  096%=      5-min Rain = 0.01
KCO2 081008Z 01007KT 01/M00 A3024 RMK A01 T00051001  RH  096%=      5-min Rain = 0
KCO2 081009Z 01008KT 01/00 A3024 RMK A01 T000500-0  RH  096%=      5-min Rain = 0
KCO2 081010Z 01008KT 01/00 A3024 RMK A01 T000500-0  RH  096%=      5-min Rain = 0
KCO2 081011Z 00011KT 01/00 A3024 RMK A01 T000500-0  RH  096%=      5-min Rain = 0.01
KCO2 081012Z 01011KT 01/00 A3024 RMK A01 T000500-0  RH  096%=      5-min Rain = 0
KCO2 081013Z 01008KT 01/00 A3024 RMK A01 T000500-0  RH  096%=      5-min Rain = 0
KCO2 081014Z 01009KT 01/00 A3024 RMK A01 T000500-0  RH  096%=      5-min Rain = 0.01
KCO2 081015Z 02010KT 01/00 A3024 RMK A01 T00050000  RH  097%=      5-min Rain = 0
KCO2 081016Z 02012KT 01/00 A3024 RMK A01 T000500-0  RH  097%=      5-min Rain = 0
KCO2 081017Z 01010KT 00/M00 A3024 RMK A01 T00041001  RH  096%=      5-min Rain = 0
KCO2 081018Z 02010KT 01/00 A3024 RMK A01 T000500-0  RH  097%=      5-min Rain = 0
KCO2 081019Z 02011KT 01/M00 A3024 RMK A01 T00051001  RH  096%=      5-min Rain = 0
KCO2 081020Z 02011KT 01/M00 A3024 RMK A01 T00051001  RH  096%=      5-min Rain = 0.01
KCO2 081021Z 02009KT 00/M00 A3024 RMK A01 T00041001  RH  096%=      5-min Rain = 0
KCO2 081022Z 02012KT 00/M00 A3024 RMK A01 T00041001  RH  096%=      5-min Rain = 0
KCO2 081023Z 02011KT 00/M00 A3024 RMK A01 T00041001  RH  096%=      5-min Rain = 0
KCO2 081024Z 01010KT 00/M00 A3024 RMK A01 T00041001  RH  096%=      5-min Rain = 0
KCO2 081025Z 01011KT 00/M00 A3024 RMK A01 T00041001  RH  096%=      5-min Rain = 0
KCO2 081026Z 01009KT 00/M00 A3024 RMK A01 T00041001  RH  096%=      5-min Rain = 0
KCO2 081027Z 01011KT 00/M00 A3024 RMK A01 T00041001  RH  096%=      5-min Rain = 0
KCO2 081028Z 01010KT 00/M00 A3024 RMK A01 T00041001  RH  096%=      5-min Rain = 0.01
KCO2 081029Z 01011KT 00/M00 A3024 RMK A01 T00041001  RH  096%=      5-min Rain = 0
KCO2 081030Z 01010KT 00/M00 A3024 RMK A01 T00041002  RH  096%=      5-min Rain = 0
KCO2 081031Z 02010KT 00/M00 A3024 RMK A01 T00041002  RH  096%=      5-min Rain = 0
KCO2 081032Z 01012KT 00/M00 A3024 RMK A01 T00041002  RH  096%=      5-min Rain = 0
KCO2 081033Z 01013KT 00/M00 A3024 RMK A01 T00041002  RH  096%=      5-min Rain = 0
KCO2 081034Z 02011KT 00/M00 A3024 RMK A01 T00041002  RH  096%=      5-min Rain = 0
KCO2 081035Z 02012KT 00/M00 A3024 RMK A01 T00041002  RH  096%=      5-min Rain = 0
KCO2 081036Z 02011KT 00/M00 A3024 RMK A01 T00041002  RH  096%=      5-min Rain = 0
KCO2 081037Z 02010KT 00/M00 A3024 RMK A01 T00041002  RH  096%=      5-min Rain = 0
KCO2 081038Z 02010KT 00/M00 A3024 RMK A01 T00041002  RH  096%=      5-min Rain = 0
KCO2 081039Z 02010KT 00/M00 A3024 RMK A01 T00041002  RH  096%=      5-min Rain = 0
KCO2 081040Z 02011KT 00/M00 A3024 RMK A01 T00041002  RH  096%=      5-min Rain = 0
KCO2 081041Z 02011KT 00/M00 A3024 RMK A01 T00041002  RH  096%=      5-min Rain = 0.01
KCO2 081042Z 02010KT 00/M00 A3024 RMK A01 T00041002  RH  096%=      5-min Rain = 0
KCO2 081043Z 02008KT 00/M00 A3024 RMK A01 T00041002  RH  096%=      5-min Rain = 0
KCO2 081044Z 02008KT 01/M00 A3024 RMK A01 T00051001  RH  096%=      5-min Rain = 0
KCO2 081045Z 02012KT 01/M00 A3024 RMK A01 T00051001  RH  096%=      5-min Rain = 0
KCO2 081046Z 02010KT 01/M00 A3024 RMK A01 T00051001  RH  096%=      5-min Rain = 0
KCO2 081047Z 02010KT 01/M00 A3024 RMK A01 T00051001  RH  096%=      5-min Rain = 0
KCO2 081048Z 03011KT 01/M00 A3024 RMK A01 T00051002  RH  096%=      5-min Rain = 0
KCO2 081049Z 02012KT 01/M00 A3024 RMK A01 T00051002  RH  096%=      5-min Rain = 0
KCO2 081050Z 02009KT 01/M00 A3024 RMK A01 T00051001  RH  096%=      5-min Rain = 0
KCO2 081051Z 02008KT 01/M00 A3024 RMK A01 T00051001  RH  096%=      5-min Rain = 0
KCO2 081052Z 02007KT 01/M00 A3024 RMK A01 T00051001  RH  096%=      5-min Rain = 0
KCO2 081053Z 01008KT 01/M00 A3024 RMK A01 T00051001  RH  096%=      5-min Rain = 0
KCO2 081054Z 01009KT 01/M00 A3024 RMK A01 T00051001  RH  096%=      5-min Rain = 0
KCO2 081055Z 01010KT 01/M00 A3024 RMK A01 T00051001  RH  096%=      5-min Rain = 0
KCO2 081056Z 02010KT 01/00 A3024 RMK A01 T000500-0  RH  096%=      5-min Rain = 0
KCO2 081057Z 02009KT 01/M00 A3024 RMK A01 T00051001  RH  096%=      5-min Rain = 0.01
KCO2 081058Z 02012KT 01/M00 A3024 RMK A01 T00051001  RH  096%=      5-min Rain = 0
KCO2 081059Z 01011KT 01/M00 A3024 RMK A01 T00051001  RH  096%=      5-min Rain = 0
KCO2 081100Z 02011KT 01/M00 A3024 RMK A01 T00051001  RH  096%=      5-min Rain = 0
KCO2 081101Z 02009KT 01/M00 A3024 RMK A01 T00051002  RH  096%=      5-min Rain = 0
KCO2 081102Z 02007KT 01/M00 A3024 RMK A01 T00051002  RH  096%=      5-min Rain = 0
KCO2 081103Z 02012KT 01/M00 A3024 RMK A01 T00051001  RH  096%=      5-min Rain = 0
KCO2 081104Z 03012KT 01/M00 A3024 RMK A01 T00051001  RH  096%=      5-min Rain = 0
KCO2 081105Z 02011KT 01/M00 A3024 RMK A01 T00051002  RH  096%=      5-min Rain = 0
KCO2 081106Z 02012KT 01/M00 A3024 RMK A01 T00051002  RH  095%=      5-min Rain = 0
KCO2 081107Z 03012KT 01/M00 A3024 RMK A01 T00051002  RH  095%=      5-min Rain = 0
KCO2 081108Z 02012KT 01/M00 A3024 RMK A01 T00051002  RH  095%=      5-min Rain = 0
KCO2 081109Z 02012KT 01/M00 A3024 RMK A01 T00051002  RH  095%=      5-min Rain = 0
KCO2 081110Z 02012KT 01/M00 A3024 RMK A01 T00051002  RH  095%=      5-min Rain = 0.01
KCO2 081111Z 03009KT 01/M00 A3024 RMK A01 T00051002  RH  095%=      5-min Rain = 0
KCO2 081112Z 02009KT 01/M00 A3024 RMK A01 T00051002  RH  095%=      5-min Rain = 0
KCO2 081113Z 03011KT 01/M00 A3024 RMK A01 T00051002  RH  095%=      5-min Rain = 0
KCO2 081114Z 02009KT 01/M00 A3024 RMK A01 T00051001  RH  095%=      5-min Rain = 0
KCO2 081115Z 02008KT 01/M00 A3024 RMK A01 T00051001  RH  095%=      5-min Rain = 0
KCO2 081116Z 03009KT 01/M00 A3024 RMK A01 T00051001  RH  096%=      5-min Rain = 0
KCO2 081117Z 02010KT 01/M00 A3024 RMK A01 T00051001  RH  096%=      5-min Rain = 0
KCO2 081118Z 02009KT 01/M00 A3024 RMK A01 T00051001  RH  096%=      5-min Rain = 0
KCO2 081119Z 02008KT 01/M00 A3024 RMK A01 T00051001  RH  096%=      5-min Rain = 0
KCO2 081120Z 01009KT 01/M00 A3024 RMK A01 T00051001  RH  096%=      5-min Rain = 0
KCO2 081121Z 02008KT 01/M00 A3024 RMK A01 T00051001  RH  096%=      5-min Rain = 0.01
KCO2 081122Z 02007KT 01/M00 A3024 RMK A01 T00051001  RH  096%=      5-min Rain = 0
KCO2 081123Z 02009KT 01/M00 A3024 RMK A01 T00051001  RH  096%=      5-min Rain = 0
KCO2 081124Z 02010KT 01/M00 A3024 RMK A01 T00051001  RH  096%=      5-min Rain = 0
KCO2 081125Z 02010KT 01/00 A3024 RMK A01 T000500-0  RH  096%=      5-min Rain = 0
KCO2 081126Z 01011KT 01/M00 A3024 RMK A01 T00051001  RH  096%=      5-min Rain = 0
KCO2 081127Z 02011KT 01/M00 A3024 RMK A01 T00051001  RH  096%=      5-min Rain = 0.01
KCO2 081128Z 02010KT 01/M00 A3024 RMK A01 T00051001  RH  096%=      5-min Rain = 0
KCO2 081129Z 02007KT 01/M00 A3024 RMK A01 T00051001  RH  096%=      5-min Rain = 0
KCO2 081130Z 01007KT 01/M00 A3024 RMK A01 T00051001  RH  096%=      5-min Rain = 0
KCO2 081131Z 01008KT 01/M00 A3025 RMK A01 T00051001  RH  096%=      5-min Rain = 0.01
KCO2 081132Z 01007KT 01/M00 A3025 RMK A01 T00051001  RH  096%=      5-min Rain = 0
KCO2 081133Z 01010KT 01/M00 A3025 RMK A01 T00051001  RH  096%=      5-min Rain = 0
KCO2 081134Z 01008KT 01/M00 A3025 RMK A01 T00051001  RH  096%=      5-min Rain = 0
KCO2 081135Z 00009KT 01/M00 A3025 RMK A01 T00051001  RH  096%=      5-min Rain = 0
KCO2 081136Z 01009KT 01/M00 A3025 RMK A01 T00051001  RH  096%=      5-min Rain = 0
KCO2 081137Z 00007KT 01/M00 A3025 RMK A01 T00051001  RH  096%=      5-min Rain = 0
KCO2 081138Z 36006KT 01/M00 A3025 RMK A01 T00051002  RH  096%=      5-min Rain = 0.01
KCO2 081139Z 36008KT 01/M00 A3025 RMK A01 T00051001  RH  096%=      5-min Rain = 0
KCO2 081140Z 35009KT 01/M00 A3025 RMK A01 T00051001  RH  096%=      5-min Rain = 0
KCO2 081141Z 00009KT 01/M00 A3025 RMK A01 T00051001  RH  096%=      5-min Rain = 0.01
KCO2 081142Z 35009KT 01/M00 A3025 RMK A01 T00051001  RH  096%=      5-min Rain = 0
KCO2 081143Z 00009G14KT 01/M00 A3025 RMK A01 T00051001  RH  096%=      5-min Rain = 0
KCO2 081144Z 01010KT 01/M00 A3025 RMK A01 T00051001  RH  096%=      5-min Rain = 0
KCO2 081145Z 01009KT 00/M00 A3025 RMK A01 T00041002  RH  096%=      5-min Rain = 0.01
KCO2 081146Z 01010KT 00/M00 A3025 RMK A01 T00041002  RH  096%=      5-min Rain = 0
KCO2 081147Z 01009KT 00/M00 A3025 RMK A01 T00041002  RH  096%=      5-min Rain = 0
KCO2 081148Z 01010KT 00/M00 A3025 RMK A01 T00041002  RH  096%=      5-min Rain = 0
KCO2 081149Z 01007KT 00/M00 A3025 RMK A01 T00041001  RH  096%=      5-min Rain = 0
KCO2 081150Z 01008KT 00/M00 A3025 RMK A01 T00041001  RH  096%=      5-min Rain = 0
KCO2 081151Z 01010KT 01/M00 A3025 RMK A01 T00051001  RH  096%=      5-min Rain = 0
KCO2 081152Z 01007KT 01/M00 A3025 RMK A01 T00051001  RH  096%=      5-min Rain = 0.01
KCO2 081153Z 02009KT 01/M00 A3025 RMK A01 T00051001  RH  096%=      5-min Rain = 0
KCO2 081154Z 01009KT 01/M00 A3025 RMK A01 T00051001  RH  096%=      5-min Rain = 0
KCO2 081155Z 01011KT 01/M00 A3025 RMK A01 T00051001  RH  096%=      5-min Rain = 0
KCO2 081156Z 01009KT 00/M00 A3025 RMK A01 T00041001  RH  096%=      5-min Rain = 0
KCO2 081157Z 01011KT 00/M00 A3025 RMK A01 T00041001  RH  096%=      5-min Rain = 0.01
KCO2 081158Z 02011KT 00/M00 A3025 RMK A01 T00041001  RH  096%=      5-min Rain = 0
KCO2 081159Z 01012KT 00/M00 A3025 RMK A01 T00041002  RH  096%=      5-min Rain = 0
KCO2 081200Z 02011KT 00/M00 A3025 RMK A01 T00041002  RH  096%=      5-min Rain = 0
KCO2 081201Z 02007KT 00/M00 A3025 RMK A01 T00041002  RH  096%=      5-min Rain = 0
KCO2 081202Z 02010KT 00/M00 A3025 RMK A01 T00041002  RH  096%=      5-min Rain = 0
KCO2 081203Z 01012KT 00/M00 A3025 RMK A01 T00041002  RH  096%=      5-min Rain = 0
KCO2 081204Z 01010KT 00/M00 A3025 RMK A01 T00041002  RH  096%=      5-min Rain = 0.01
KCO2 081205Z 02010KT 00/M00 A3025 RMK A01 T00041002  RH  096%=      5-min Rain = 0
KCO2 081206Z 01009KT 00/M00 A3025 RMK A01 T00041002  RH  096%=      5-min Rain = 0
KCO2 081207Z 02009KT 00/M00 A3025 RMK A01 T00041002  RH  096%=      5-min Rain = 0
KCO2 081208Z 02009KT 00/M00 A3026 RMK A01 T00041002  RH  096%=      5-min Rain = 0
KCO2 081209Z 02010KT 00/M00 A3026 RMK A01 T00041002  RH  096%=      5-min Rain = 0
KCO2 081210Z 02010KT 00/M00 A3026 RMK A01 T00041002  RH  096%=      5-min Rain = 0
KCO2 081211Z 02009KT 00/M00 A3026 RMK A01 T00041002  RH  096%=      5-min Rain = 0
KCO2 081212Z 02009KT 00/M00 A3026 RMK A01 T00041002  RH  096%=      5-min Rain = 0
KCO2 081213Z 02009KT 00/M00 A3026 RMK A01 T00041002  RH  096%=      5-min Rain = 0
KCO2 081214Z 02008G13KT 01/M00 A3026 RMK A01 T00051001  RH  096%=      5-min Rain = 0
KCO2 081215Z 02011KT 01/M00 A3026 RMK A01 T00051001  RH  096%=      5-min Rain = 0
KCO2 081216Z 02010KT 01/M00 A3026 RMK A01 T00051001  RH  096%=      5-min Rain = 0
KCO2 081217Z 02011KT 01/M00 A3026 RMK A01 T00051001  RH  096%=      5-min Rain = 0
KCO2 081218Z 02010KT 01/M00 A3026 RMK A01 T00051001  RH  096%=      5-min Rain = 0
KCO2 081219Z 02008KT 01/M00 A3026 RMK A01 T00051001  RH  096%=      5-min Rain = 0
KCO2 081220Z 02007KT 01/M00 A3026 RMK A01 T00051001  RH  096%=      5-min Rain = 0
KCO2 081221Z 02008KT 01/M00 A3026 RMK A01 T00051001  RH  096%=      5-min Rain = 0
KCO2 081222Z 01009KT 01/M00 A3026 RMK A01 T00051001  RH  096%=      5-min Rain = 0
KCO2 081223Z 02008KT 01/M00 A3026 RMK A01 T00051001  RH  096%=      5-min Rain = 0
KCO2 081224Z 02010KT 01/M00 A3026 RMK A01 T00051001  RH  096%=      5-min Rain = 0
KCO2 081225Z 02008KT 01/M00 A3026 RMK A01 T00051001  RH  096%=      5-min Rain = 0
KCO2 081226Z 02009KT 01/M00 A3026 RMK A01 T00051001  RH  096%=      5-min Rain = 0.01
KCO2 081227Z 02009KT 01/M00 A3026 RMK A01 T00051001  RH  096%=      5-min Rain = 0
KCO2 081228Z 03008KT 01/M00 A3026 RMK A01 T00051001  RH  096%=      5-min Rain = 0
KCO2 081229Z 02007KT 01/M00 A3026 RMK A01 T00051001  RH  096%=      5-min Rain = 0
KCO2 081230Z 02006KT 01/M00 A3026 RMK A01 T00051001  RH  096%=      5-min Rain = 0
KCO2 081231Z 02007KT 01/M00 A3026 RMK A01 T00051001  RH  096%=      5-min Rain = 0
KCO2 081232Z 02008KT 01/M00 A3026 RMK A01 T00051001  RH  096%=      5-min Rain = 0
KCO2 081233Z 02006KT 01/M00 A3026 RMK A01 T00051001  RH  096%=      5-min Rain = 0
KCO2 081234Z 02007KT 01/M00 A3026 RMK A01 T00051001  RH  096%=      5-min Rain = 0
KCO2 081235Z 02006KT 01/M00 A3026 RMK A01 T00051001  RH  096%=      5-min Rain = 0
KCO2 081236Z 02006KT 01/M00 A3026 RMK A01 T00051001  RH  096%=      5-min Rain = 0
KCO2 081237Z 02005KT 01/M00 A3026 RMK A01 T00051001  RH  096%=      5-min Rain = 0
KCO2 081238Z 02007KT 01/M00 A3027 RMK A01 T00051001  RH  096%=      5-min Rain = 0
KCO2 081239Z 02008KT 01/M00 A3027 RMK A01 T00051001  RH  096%=      5-min Rain = 0
KCO2 081240Z 02009KT 01/M00 A3027 RMK A01 T00051001  RH  096%=      5-min Rain = 0
KCO2 081241Z 01006KT 01/M00 A3027 RMK A01 T00051001  RH  096%=      5-min Rain = 0
KCO2 081242Z 01006KT 01/M00 A3027 RMK A01 T00051001  RH  096%=      5-min Rain = 0
KCO2 081243Z 01005KT 01/M00 A3027 RMK A01 T00051001  RH  096%=      5-min Rain = 0
KCO2 081244Z 02007KT 01/M00 A3027 RMK A01 T00051001  RH  096%=      5-min Rain = 0
KCO2 081245Z 01007KT 01/M00 A3027 RMK A01 T00051001  RH  096%=      5-min Rain = 0
KCO2 081246Z 01007KT 01/M00 A3027 RMK A01 T00051001  RH  096%=      5-min Rain = 0
KCO2 081247Z 00007KT 01/M00 A3027 RMK A01 T00051001  RH  096%=      5-min Rain = 0
KCO2 081248Z 01006KT 00/M00 A3027 RMK A01 T00041001  RH  096%=      5-min Rain = 0
KCO2 081249Z 00006KT 00/M00 A3027 RMK A01 T00041001  RH  096%=      5-min Rain = 0
KCO2 081250Z 00005KT 00/M00 A3027 RMK A01 T00041001  RH  096%=      5-min Rain = 0
KCO2 081251Z 00005KT 00/M00 A3027 RMK A01 T00041001  RH  096%=      5-min Rain = 0
KCO2 081252Z 00006KT 00/M00 A3027 RMK A01 T00041001  RH  096%=      5-min Rain = 0
KCO2 081253Z 36006KT 00/M00 A3027 RMK A01 T00041002  RH  096%=      5-min Rain = 0
KCO2 081254Z 36006KT 00/M00 A3027 RMK A01 T00041002  RH  096%=      5-min Rain = 0
KCO2 081255Z 00006KT 00/M00 A3027 RMK A01 T00031002  RH  096%=      5-min Rain = 0
KCO2 081256Z 01007KT 00/M00 A3027 RMK A01 T00031002  RH  096%=      5-min Rain = 0
KCO2 081257Z 01007KT 00/M00 A3027 RMK A01 T00031002  RH  097%=      5-min Rain = 0
KCO2 081258Z 01007KT 00/M00 A3027 RMK A01 T00031002  RH  097%=      5-min Rain = 0
KCO2 081259Z 01007KT 00/M00 A3027 RMK A01 T00031002  RH  097%=      5-min Rain = 0
KCO2 081300Z 01008KT 00/M00 A3027 RMK A01 T00031002  RH  097%=      5-min Rain = 0
KCO2 081301Z 01008KT 00/M00 A3027 RMK A01 T00021002  RH  097%=      5-min Rain = 0
KCO2 081302Z 01007KT 00/M00 A3027 RMK A01 T00021002  RH  097%=      5-min Rain = 0
KCO2 081303Z 01007KT 00/M00 A3027 RMK A01 T00021002  RH  097%=      5-min Rain = 0
KCO2 081304Z 00007KT 00/M00 A3027 RMK A01 T00021002  RH  097%=      5-min Rain = 0
KCO2 081305Z 01007KT 00/M00 A3027 RMK A01 T00021002  RH  097%=      5-min Rain = 0
KCO2 081306Z 36008KT 00/M00 A3028 RMK A01 T00021002  RH  097%=      5-min Rain = 0
KCO2 081307Z 36006KT 00/M00 A3028 RMK A01 T00021002  RH  097%=      5-min Rain = 0
KCO2 081308Z 36007KT 00/M00 A3028 RMK A01 T00021002  RH  097%=      5-min Rain = 0
KCO2 081309Z 36006KT 00/M00 A3028 RMK A01 T00021002  RH  097%=      5-min Rain = 0
KCO2 081310Z 36008KT 00/M00 A3028 RMK A01 T00011002  RH  097%=      5-min Rain = 0
KCO2 081311Z 35007KT 00/M00 A3028 RMK A01 T00021002  RH  097%=      5-min Rain = 0
KCO2 081312Z 36007KT 00/M00 A3028 RMK A01 T00021002  RH  097%=      5-min Rain = 0
KCO2 081313Z 35006KT 00/M00 A3028 RMK A01 T00011002  RH  097%=      5-min Rain = 0
KCO2 081314Z 35007KT 00/M00 A3028 RMK A01 T00021002  RH  097%=      5-min Rain = 0
KCO2 081315Z 35006KT 00/M00 A3028 RMK A01 T00021002  RH  098%=      5-min Rain = 0
KCO2 081316Z 35005KT 00/M00 A3028 RMK A01 T00021002  RH  098%=      5-min Rain = 0
KCO2 081317Z 35007KT 00/M00 A3028 RMK A01 T00011002  RH  098%=      5-min Rain = 0
KCO2 081318Z 35006KT 00/M00 A3028 RMK A01 T00021002  RH  098%=      5-min Rain = 0
KCO2 081319Z 35006KT 00/M00 A3028 RMK A01 T00011002  RH  098%=      5-min Rain = 0
KCO2 081320Z 35007KT 00/M00 A3028 RMK A01 T00011002  RH  098%=      5-min Rain = 0
KCO2 081321Z 01010KT 00/M00 A3028 RMK A01 T00011002  RH  098%=      5-min Rain = 0
KCO2 081322Z 01009KT 00/M00 A3028 RMK A01 T00011002  RH  098%=      5-min Rain = 0
KCO2 081323Z 01007KT 00/M00 A3028 RMK A01 T00011002  RH  098%=      5-min Rain = 0
KCO2 081324Z 01008KT 00/M00 A3028 RMK A01 T00011002  RH  098%=      5-min Rain = 0
KCO2 081325Z 01008KT 00/M00 A3028 RMK A01 T00011002  RH  098%=      5-min Rain = 0
KCO2 081326Z 01009KT 00/M00 A3028 RMK A01 T00011002  RH  098%=      5-min Rain = 0
KCO2 081327Z 01009KT 00/M00 A3028 RMK A01 T00011002  RH  098%=      5-min Rain = 0
KCO2 081328Z 01007KT 00/M00 A3028 RMK A01 T00011002  RH  098%=      5-min Rain = 0
KCO2 081329Z 01007KT 00/M00 A3028 RMK A01 T00011002  RH  098%=      5-min Rain = 0
KCO2 081330Z 01007KT 00/M00 A3028 RMK A01 T00011002  RH  098%=      5-min Rain = 0
KCO2 081331Z 01007KT 00/M00 A3028 RMK A01 T00011002  RH  098%=      5-min Rain = 0
KCO2 081332Z 01006KT 00/M00 A3029 RMK A01 T00011002  RH  098%=      5-min Rain = 0
KCO2 081333Z 36008KT 00/M00 A3029 RMK A01 T00011002  RH  098%=      5-min Rain = 0
KCO2 081334Z 00007KT 00/M00 A3029 RMK A01 T00011002  RH  098%=      5-min Rain = 0
KCO2 081335Z 36007KT 00/M00 A3029 RMK A01 T00011002  RH  098%=      5-min Rain = 0
KCO2 081336Z 00006KT 00/M00 A3029 RMK A01 T00011002  RH  098%=      5-min Rain = 0
KCO2 081337Z 36007KT 00/M00 A3029 RMK A01 T00011002  RH  098%=      5-min Rain = 0
KCO2 081338Z 00006KT 00/M00 A3029 RMK A01 T00011002  RH  098%=      5-min Rain = 0
KCO2 081339Z 00006KT 00/M00 A3029 RMK A01 T00011002  RH  098%=      5-min Rain = 0
KCO2 081340Z 36006KT 00/00 A3029 RMK A01 T000000-2  RH  098%=      5-min Rain = 0
KCO2 081341Z 36007KT 00/00 A3029 RMK A01 T000000-2  RH  098%=      5-min Rain = 0
KCO2 081342Z 35005KT 00/M00 A3029 RMK A01 T00011002  RH  098%=      5-min Rain = 0
KCO2 081343Z 36006KT 00/M00 A3029 RMK A01 T00011002  RH  098%=      5-min Rain = 0
KCO2 081344Z 00009KT 00/M00 A3029 RMK A01 T00011002  RH  098%=      5-min Rain = 0
KCO2 081345Z 00007KT 00/M00 A3029 RMK A01 T00011002  RH  098%=      5-min Rain = 0
KCO2 081346Z 00009KT 00/M00 A3029 RMK A01 T00011002  RH  098%=      5-min Rain = 0
KCO2 081347Z 00008KT 00/00 A3029 RMK A01 T000000-2  RH  098%=      5-min Rain = 0
KCO2 081348Z 36007KT 00/M00 A3029 RMK A01 T00011002  RH  098%=      5-min Rain = 0
KCO2 081349Z 00008KT 00/M00 A3029 RMK A01 T00011002  RH  098%=      5-min Rain = 0
KCO2 081350Z 01008KT 00/M00 A3029 RMK A01 T00011002  RH  098%=      5-min Rain = 0
KCO2 081351Z 00008KT 00/00 A3029 RMK A01 T000000-2  RH  098%=      5-min Rain = 0
KCO2 081352Z 00009KT 00/M00 A3029 RMK A01 T00011002  RH  098%=      5-min Rain = 0
KCO2 081353Z 01009KT 00/M00 A3029 RMK A01 T00011002  RH  098%=      5-min Rain = 0
KCO2 081354Z 01008KT 00/00 A3029 RMK A01 T000000-2  RH  098%=      5-min Rain = 0
KCO2 081355Z 36008KT 00/M00 A3029 RMK A01 T00011002  RH  098%=      5-min Rain = 0
KCO2 081356Z 00010KT 00/M00 A3029 RMK A01 T00011002  RH  098%=      5-min Rain = 0
KCO2 081357Z 01010KT 00/M00 A3029 RMK A01 T00011002  RH  098%=      5-min Rain = 0
KCO2 081358Z 01009KT 00/00 A3029 RMK A01 T000000-3  RH  098%=      5-min Rain = 0
KCO2 081359Z 01008KT 00/00 A3029 RMK A01 T000000-2  RH  098%=      5-min Rain = 0
KCO2 081400Z 01008KT 00/00 A3029 RMK A01 T000000-2  RH  098%=      5-min Rain = 0
KCO2 081401Z 01009KT 00/00 A3029 RMK A01 T000000-2  RH  098%=      5-min Rain = 0
KCO2 081402Z 01009KT 00/00 A3029 RMK A01 T000000-3  RH  098%=      5-min Rain = 0
KCO2 081403Z 01009KT 00/00 A3029 RMK A01 T000000-3  RH  098%=      5-min Rain = 0
KCO2 081404Z 01009KT 00/00 A3029 RMK A01 T000000-2  RH  098%=      5-min Rain = 0
KCO2 081405Z 01009KT 00/00 A3029 RMK A01 T000000-2  RH  098%=      5-min Rain = 0
KCO2 081406Z 01009KT 00/00 A3029 RMK A01 T000000-2  RH  098%=      5-min Rain = 0
KCO2 081407Z 01009KT 00/00 A3029 RMK A01 T000000-3  RH  098%=      5-min Rain = 0
KCO2 081408Z 01009KT 00/00 A3029 RMK A01 T00-000-3  RH  098%=      5-min Rain = 0
KCO2 081409Z 01009KT 00/00 A3029 RMK A01 T000000-3  RH  098%=      5-min Rain = 0
KCO2 081410Z 01009KT 00/00 A3029 RMK A01 T000000-3  RH  098%=      5-min Rain = 0
KCO2 081411Z 01009KT 00/00 A3029 RMK A01 T000000-3  RH  098%=      5-min Rain = 0
KCO2 081412Z 01008KT 00/00 A3029 RMK A01 T000000-3  RH  098%=      5-min Rain = 0
KCO2 081413Z 01008KT 00/00 A3029 RMK A01 T000000-3  RH  098%=      5-min Rain = 0
KCO2 081414Z 01007KT 00/00 A3029 RMK A01 T000000-3  RH  098%=      5-min Rain = 0
KCO2 081415Z 01010KT 00/00 A303 RMK A01 T000000-3  RH  098%=      5-min Rain = 0
KCO2 081416Z 01010KT 00/00 A303 RMK A01 T00-000-3  RH  098%=      5-min Rain = 0
KCO2 081417Z 00010KT 00/00 A303 RMK A01 T00-000-3  RH  098%=      5-min Rain = 0
KCO2 081418Z 00008KT 00/00 A303 RMK A01 T00-000-3  RH  098%=      5-min Rain = 0
KCO2 081419Z 00009KT 00/00 A303 RMK A01 T00-000-3  RH  098%=      5-min Rain = 0
KCO2 081420Z 00008KT 00/00 A303 RMK A01 T00-000-3  RH  098%=      5-min Rain = 0
KCO2 081421Z 00008KT 00/00 A303 RMK A01 T00-000-3  RH  098%=      5-min Rain = 0
KCO2 081422Z 00007KT 00/00 A303 RMK A01 T00-000-3  RH  098%=      5-min Rain = 0
KCO2 081423Z 00007KT 00/00 A303 RMK A01 T00-000-3  RH  098%=      5-min Rain = 0
KCO2 081424Z 01008KT 00/00 A303 RMK A01 T00-000-3  RH  098%=      5-min Rain = 0
KCO2 081425Z 01008KT 00/00 A303 RMK A01 T00-000-3  RH  098%=      5-min Rain = 0
KCO2 081426Z 36008KT 00/00 A303 RMK A01 T00-000-4  RH  098%=      5-min Rain = 0
KCO2 081427Z 00008KT 00/00 A303 RMK A01 T00-000-4  RH  098%=      5-min Rain = 0
KCO2 081428Z 01010KT 00/00 A303 RMK A01 T00-000-4  RH  098%=      5-min Rain = 0
KCO2 081429Z 00008KT 00/00 A303 RMK A01 T00-000-4  RH  098%=      5-min Rain = 0
KCO2 081430Z 01009KT 00/00 A303 RMK A01 T00-000-4  RH  098%=      5-min Rain = 0
KCO2 081431Z 01009KT 00/00 A303 RMK A01 T00-000-4  RH  098%=      5-min Rain = 0
KCO2 081432Z 36007KT 00/00 A303 RMK A01 T00-000-4  RH  098%=      5-min Rain = 0
KCO2 081433Z 01009KT 00/00 A303 RMK A01 T00-000-4  RH  097%=      5-min Rain = 0
KCO2 081434Z 01010KT 00/00 A303 RMK A01 T00-000-4  RH  097%=      5-min Rain = 0
KCO2 081435Z 01010KT 00/00 A303 RMK A01 T00-000-4  RH  097%=      5-min Rain = 0
KCO2 081436Z 01010KT M00/M00 A303 RMK A01 T10011004  RH  097%=      5-min Rain = 0
KCO2 081437Z 01009KT 00/00 A303 RMK A01 T00-000-4  RH  097%=      5-min Rain = 0
KCO2 081438Z 01009KT M00/M01 A303 RMK A01 T10011005  RH  097%=      5-min Rain = 0
KCO2 081439Z 01010KT 00/00 A303 RMK A01 T00-000-4  RH  097%=      5-min Rain = 0
KCO2 081440Z 01009KT 00/00 A303 RMK A01 T00-000-4  RH  097%=      5-min Rain = 0
KCO2 081441Z 01009KT 00/00 A303 RMK A01 T000000-4  RH  097%=      5-min Rain = 0
KCO2 081442Z 01009KT 00/00 A303 RMK A01 T000000-4  RH  097%=      5-min Rain = 0
KCO2 081443Z 01009KT 00/00 A303 RMK A01 T00-000-4  RH  097%=      5-min Rain = 0
KCO2 081444Z 01008KT 00/00 A303 RMK A01 T000000-4  RH  097%=      5-min Rain = 0
KCO2 081445Z 01007KT 00/00 A303 RMK A01 T000000-4  RH  097%=      5-min Rain = 0
KCO2 081446Z 01008KT 00/00 A3031 RMK A01 T000000-4  RH  097%=      5-min Rain = 0
KCO2 081447Z 01008KT 00/00 A3031 RMK A01 T000000-4  RH  097%=      5-min Rain = 0
KCO2 081448Z 00008KT 00/00 A3031 RMK A01 T00-000-4  RH  097%=      5-min Rain = 0
KCO2 081449Z 00009KT 00/00 A3031 RMK A01 T00-000-4  RH  097%=      5-min Rain = 0
KCO2 081450Z 00008KT 00/01 A3031 RMK A01 T00-000-5  RH  097%=      5-min Rain = 0
KCO2 081451Z 00008KT 00/00 A3031 RMK A01 T000000-4  RH  097%=      5-min Rain = 0
KCO2 081452Z 01010KT 00/00 A3031 RMK A01 T000000-4  RH  097%=      5-min Rain = 0
KCO2 081453Z 00009KT 00/00 A3031 RMK A01 T000000-4  RH  097%=      5-min Rain = 0
KCO2 081454Z 36009KT 00/01 A3031 RMK A01 T00-000-5  RH  097%=      5-min Rain = 0
KCO2 081455Z 00009KT 00/00 A3031 RMK A01 T000000-4  RH  097%=      5-min Rain = 0
KCO2 081456Z 00009KT 00/00 A3031 RMK A01 T000000-4  RH  097%=      5-min Rain = 0
KCO2 081457Z 35008KT 00/M00 A3031 RMK A01 T00011004  RH  097%=      5-min Rain = 0
KCO2 081458Z 35008KT 00/M00 A3031 RMK A01 T00011004  RH  097%=      5-min Rain = 0
KCO2 081459Z 36009KT 00/M00 A3031 RMK A01 T00011004  RH  097%=      5-min Rain = 0
KCO2 081500Z 35008KT 00/M00 A3031 RMK A01 T00011004  RH  097%=      5-min Rain = 0
KCO2 081501Z 00007KT 00/M00 A3031 RMK A01 T00011004  RH  097%=      5-min Rain = 0
KCO2 081502Z 00011KT 00/M00 A3031 RMK A01 T00011004  RH  097%=      5-min Rain = 0
KCO2 081503Z 00010KT 00/M00 A3031 RMK A01 T00011004  RH  097%=      5-min Rain = 0
KCO2 081504Z 01009G14KT 00/01 A3031 RMK A01 T000000-5  RH  096%=      5-min Rain = 0
KCO2 081505Z 01011KT 00/01 A3031 RMK A01 T000000-5  RH  096%=      5-min Rain = 0
KCO2 081506Z 01009KT 00/01 A3031 RMK A01 T000000-5  RH  096%=      5-min Rain = 0
KCO2 081507Z 00009KT 00/01 A3031 RMK A01 T000000-5  RH  096%=      5-min Rain = 0
KCO2 081508Z 01009KT 00/01 A3031 RMK A01 T000000-5  RH  096%=      5-min Rain = 0
KCO2 081509Z 01012KT 00/01 A3031 RMK A01 T000000-6  RH  096%=      5-min Rain = 0
KCO2 081510Z 02008KT 00/01 A3031 RMK A01 T000000-6  RH  096%=      5-min Rain = 0
KCO2 081511Z 01009KT 00/01 A3031 RMK A01 T00-000-6  RH  096%=      5-min Rain = 0
KCO2 081512Z 01007KT 00/01 A3031 RMK A01 T000000-5  RH  096%=      5-min Rain = 0
KCO2 081513Z 00010KT 00/M01 A3031 RMK A01 T00011005  RH  096%=      5-min Rain = 0
KCO2 081514Z 00009KT 00/01 A3031 RMK A01 T000000-6  RH  096%=      5-min Rain = 0
KCO2 081515Z 00011KT 00/01 A3032 RMK A01 T000000-6  RH  096%=      5-min Rain = 0
KCO2 081516Z 00008KT 00/01 A3032 RMK A01 T000000-6  RH  096%=      5-min Rain = 0
KCO2 081517Z 00007KT 00/01 A3032 RMK A01 T000000-6  RH  096%=      5-min Rain = 0
KCO2 081518Z 36006KT 00/01 A3032 RMK A01 T000000-6  RH  096%=      5-min Rain = 0
KCO2 081519Z 36009KT 00/01 A3032 RMK A01 T000000-6  RH  096%=      5-min Rain = 0
KCO2 081520Z 36010KT 00/01 A3032 RMK A01 T000000-6  RH  096%=      5-min Rain = 0
KCO2 081521Z 36010KT 00/M01 A3032 RMK A01 T00011006  RH  096%=      5-min Rain = 0
KCO2 081522Z 00009KT 00/01 A3032 RMK A01 T000000-6  RH  096%=      5-min Rain = 0
KCO2 081523Z 00011KT 00/M01 A3032 RMK A01 T00011006  RH  096%=      5-min Rain = 0
KCO2 081524Z 36008KT 00/M01 A3032 RMK A01 T00011006  RH  096%=      5-min Rain = 0
KCO2 081525Z 36007KT 00/M01 A3032 RMK A01 T00011006  RH  095%=      5-min Rain = 0
KCO2 081526Z 00009KT 00/M01 A3032 RMK A01 T00011006  RH  096%=      5-min Rain = 0
KCO2 081527Z 00011KT 00/01 A3032 RMK A01 T000000-6  RH  095%=      5-min Rain = 0
KCO2 081528Z 00011KT 00/M01 A3032 RMK A01 T00011006  RH  095%=      5-min Rain = 0
KCO2 081529Z 36009KT 00/M01 A3032 RMK A01 T00011006  RH  095%=      5-min Rain = 0
KCO2 081530Z 36009KT 00/M01 A3032 RMK A01 T00011006  RH  095%=      5-min Rain = 0.01
KCO2 081531Z 00011KT 00/01 A3032 RMK A01 T000000-6  RH  095%=      5-min Rain = 0
KCO2 081532Z 01012KT 00/M01 A3032 RMK A01 T00011006  RH  095%=      5-min Rain = 0
KCO2 081533Z 01010KT 00/01 A3032 RMK A01 T000000-7  RH  095%=      5-min Rain = 0
KCO2 081534Z 00011KT 00/01 A3032 RMK A01 T000000-7  RH  095%=      5-min Rain = 0
KCO2 081535Z 00011KT 00/M01 A3032 RMK A01 T00011006  RH  095%=      5-min Rain = 0
KCO2 081536Z 00013KT 00/M01 A3032 RMK A01 T00011007  RH  095%=      5-min Rain = 0
KCO2 081537Z 00012KT 00/M01 A3032 RMK A01 T00011007  RH  095%=      5-min Rain = 0
KCO2 081538Z 00011KT 00/M01 A3032 RMK A01 T00011007  RH  095%=      5-min Rain = 0
KCO2 081539Z 01011KT 00/01 A3032 RMK A01 T000000-7  RH  095%=      5-min Rain = 0
KCO2 081540Z 01009KT 00/01 A3032 RMK A01 T000000-7  RH  095%=      5-min Rain = 0
KCO2 081541Z 01013KT 00/M01 A3032 RMK A01 T00011006  RH  095%=      5-min Rain = 0
KCO2 081542Z 01011KT 00/M01 A3032 RMK A01 T00011006  RH  095%=      5-min Rain = 0
KCO2 081543Z 01009KT 00/M01 A3032 RMK A01 T00011007  RH  095%=      5-min Rain = 0
KCO2 081544Z 00010KT 00/M01 A3032 RMK A01 T00011006  RH  095%=      5-min Rain = 0
KCO2 081545Z 00008KT 00/M01 A3033 RMK A01 T00021006  RH  095%=      5-min Rain = 0.01
KCO2 081546Z 01010KT 00/M01 A3033 RMK A01 T00021006  RH  095%=      5-min Rain = 0
KCO2 081547Z 01009KT 00/M01 A3033 RMK A01 T00021006  RH  095%=      5-min Rain = 0
KCO2 081548Z 36007KT 00/M01 A3033 RMK A01 T00021005  RH  095%=      5-min Rain = 0
KCO2 081549Z 00008KT 00/M01 A3033 RMK A01 T00021005  RH  095%=      5-min Rain = 0
KCO2 081550Z 36007KT 00/M01 A3033 RMK A01 T00021005  RH  095%=      5-min Rain = 0
KCO2 081551Z 00007KT 00/M01 A3033 RMK A01 T00021005  RH  095%=      5-min Rain = 0
KCO2 081552Z 00007KT 00/M00 A3033 RMK A01 T00031004  RH  095%=      5-min Rain = 0
KCO2 081553Z 36009KT 00/M00 A3033 RMK A01 T00031004  RH  095%=      5-min Rain = 0
KCO2 081554Z 36007KT 00/M00 A3033 RMK A01 T00031004  RH  095%=      5-min Rain = 0
KCO2 081555Z 36007KT 00/M00 A3033 RMK A01 T00031004  RH  095%=      5-min Rain = 0.01
KCO2 081556Z 35008KT 00/M00 A3033 RMK A01 T00031004  RH  095%=      5-min Rain = 0
KCO2 081557Z 35008KT 00/M00 A3033 RMK A01 T00031004  RH  095%=      5-min Rain = 0
KCO2 081558Z 34007KT 00/M00 A3033 RMK A01 T00031004  RH  095%=      5-min Rain = 0
KCO2 081559Z 35007KT 00/M00 A3033 RMK A01 T00031004  RH  095%=      5-min Rain = 0
KCO2 081600Z 34007KT 00/M00 A3033 RMK A01 T00031004  RH  095%=      5-min Rain = 0
KCO2 081601Z 35009KT 00/M00 A3033 RMK A01 T00031003  RH  095%=      5-min Rain = 0
KCO2 081602Z 35006KT 00/M00 A3033 RMK A01 T00031003  RH  095%=      5-min Rain = 0
KCO2 081603Z 35008KT 00/M00 A3033 RMK A01 T00041003  RH  095%=      5-min Rain = 0
KCO2 081604Z 34008KT 00/M00 A3033 RMK A01 T00031003  RH  095%=      5-min Rain = 0.01
KCO2 081605Z 35007KT 00/M00 A3033 RMK A01 T00031003  RH  095%=      5-min Rain = 0
KCO2 081606Z 35008KT 00/M00 A3033 RMK A01 T00041003  RH  096%=      5-min Rain = 0
KCO2 081607Z 35009KT 00/M00 A3033 RMK A01 T00041003  RH  095%=      5-min Rain = 0
KCO2 081608Z 35010KT 00/M00 A3033 RMK A01 T00031003  RH  095%=      5-min Rain = 0
KCO2 081609Z 35010KT 00/M00 A3033 RMK A01 T00031003  RH  095%=      5-min Rain = 0
KCO2 081610Z 35009KT 00/M00 A3033 RMK A01 T00031004  RH  095%=      5-min Rain = 0.01
KCO2 081611Z 35008KT 00/M00 A3033 RMK A01 T00021004  RH  095%=      5-min Rain = 0
KCO2 081612Z 36006KT 00/M00 A3033 RMK A01 T00021004  RH  095%=      5-min Rain = 0
KCO2 081613Z 01008KT 00/M00 A3033 RMK A01 T00031003  RH  096%=      5-min Rain = 0
KCO2 081614Z 36011KT 00/M00 A3033 RMK A01 T00041002  RH  096%=      5-min Rain = 0
KCO2 081615Z 36011KT 00/M00 A3033 RMK A01 T00031004  RH  095%=      5-min Rain = 0
KCO2 081616Z 00011KT 00/M01 A3033 RMK A01 T00021005  RH  095%=      5-min Rain = 0
KCO2 081617Z 00012KT 00/M01 A3033 RMK A01 T00021005  RH  095%=      5-min Rain = 0
KCO2 081618Z 36009KT 00/M01 A3033 RMK A01 T00011007  RH  094%=      5-min Rain = 0
KCO2 081619Z 01011KT 00/M01 A3033 RMK A01 T00021006  RH  094%=      5-min Rain = 0
KCO2 081620Z 01011KT 00/M01 A3033 RMK A01 T00031005  RH  094%=      5-min Rain = 0
KCO2 081621Z 01012KT 00/M01 A3033 RMK A01 T00031006  RH  094%=      5-min Rain = 0
KCO2 081622Z 01012KT 00/M01 A3033 RMK A01 T00031006  RH  094%=      5-min Rain = 0
KCO2 081623Z 01011KT 00/M01 A3033 RMK A01 T00021007  RH  094%=      5-min Rain = 0
KCO2 081624Z 01008KT 00/M01 A3033 RMK A01 T00031006  RH  094%=      5-min Rain = 0.01
KCO2 081625Z 00007KT 00/M01 A3033 RMK A01 T00041005  RH  094%=      5-min Rain = 0
KCO2 081626Z 00010KT 00/M00 A3034 RMK A01 T00041003  RH  095%=      5-min Rain = 0
KCO2 081627Z 36009KT 00/M00 A3034 RMK A01 T00041004  RH  094%=      5-min Rain = 0
KCO2 081628Z 00011KT 00/M01 A3034 RMK A01 T00031005  RH  094%=      5-min Rain = 0
KCO2 081629Z 35009KT 00/M01 A3034 RMK A01 T00031006  RH  094%=      5-min Rain = 0
KCO2 081630Z 35009KT 00/M01 A3034 RMK A01 T00031005  RH  094%=      5-min Rain = 0
KCO2 081631Z 36011KT 00/M01 A3034 RMK A01 T00031006  RH  094%=      5-min Rain = 0
KCO2 081632Z 00011KT 00/M01 A3034 RMK A01 T00021007  RH  094%=      5-min Rain = 0.01
KCO2 081633Z 00008KT 00/M01 A3034 RMK A01 T00021007  RH  094%=      5-min Rain = 0
KCO2 081634Z 36010KT 00/M01 A3034 RMK A01 T00021006  RH  094%=      5-min Rain = 0
KCO2 081635Z 00009KT 00/M01 A3034 RMK A01 T00031006  RH  094%=      5-min Rain = 0
KCO2 081636Z 36009KT 00/M01 A3034 RMK A01 T00031006  RH  094%=      5-min Rain = 0
KCO2 081637Z 01009KT 00/M01 A3034 RMK A01 T00031006  RH  094%=      5-min Rain = 0
KCO2 081638Z 01009KT 00/M01 A3034 RMK A01 T00031005  RH  094%=      5-min Rain = 0
KCO2 081639Z 36010KT 00/M01 A3034 RMK A01 T00031005  RH  094%=      5-min Rain = 0
KCO2 081640Z 00009KT 00/M01 A3034 RMK A01 T00031005  RH  094%=      5-min Rain = 0.01
KCO2 081641Z 36009KT 00/M01 A3034 RMK A01 T00031005  RH  094%=      5-min Rain = 0
KCO2 081642Z 00010KT 00/M01 A3034 RMK A01 T00031005  RH  094%=      5-min Rain = 0
KCO2 081643Z 35009KT 00/M01 A3034 RMK A01 T00031005  RH  094%=      5-min Rain = 0
KCO2 081644Z 36010KT 00/M01 A3034 RMK A01 T00031005  RH  094%=      5-min Rain = 0
KCO2 081645Z 00008KT 00/M01 A3034 RMK A01 T00031005  RH  094%=      5-min Rain = 0
KCO2 081646Z 36009KT 00/M01 A3034 RMK A01 T00031005  RH  094%=      5-min Rain = 0
KCO2 081647Z 35009KT 00/M01 A3034 RMK A01 T00041005  RH  094%=      5-min Rain = 0
KCO2 081648Z 01009KT 00/M01 A3034 RMK A01 T00041005  RH  094%=      5-min Rain = 0.01
KCO2 081649Z 00008KT 00/M00 A3034 RMK A01 T00041004  RH  094%=      5-min Rain = 0
KCO2 081650Z 36010KT 01/M00 A3034 RMK A01 T00051004  RH  094%=      5-min Rain = 0
KCO2 081651Z 36010KT 01/M00 A3034 RMK A01 T00051004  RH  094%=      5-min Rain = 0
KCO2 081652Z 35010KT 00/M01 A3034 RMK A01 T00041005  RH  094%=      5-min Rain = 0
KCO2 081653Z 36009KT 00/M01 A3034 RMK A01 T00041006  RH  093%=      5-min Rain = 0
KCO2 081654Z 36007KT 00/M01 A3034 RMK A01 T00041005  RH  094%=      5-min Rain = 0
KCO2 081655Z 35009KT 00/M01 A3034 RMK A01 T00041005  RH  094%=      5-min Rain = 0
KCO2 081656Z 36010KT 00/M01 A3034 RMK A01 T00041005  RH  094%=      5-min Rain = 0
KCO2 081657Z 35009KT 00/M01 A3034 RMK A01 T00041006  RH  094%=      5-min Rain = 0
KCO2 081658Z 35010KT 00/M01 A3034 RMK A01 T00041005  RH  094%=      5-min Rain = 0
KCO2 081659Z 34010KT 00/M01 A3034 RMK A01 T00041006  RH  094%=      5-min Rain = 0
KCO2 081700Z 34010KT 00/M01 A3034 RMK A01 T00041005  RH  094%=      5-min Rain = 0
KCO2 081701Z 35007KT 00/M01 A3034 RMK A01 T00041006  RH  094%=      5-min Rain = 0
KCO2 081702Z 35008KT 00/M01 A3034 RMK A01 T00041005  RH  094%=      5-min Rain = 0
KCO2 081703Z 35009KT 01/M00 A3034 RMK A01 T00051004  RH  094%=      5-min Rain = 0
KCO2 081704Z 36009KT 01/M00 A3034 RMK A01 T00051003  RH  094%=      5-min Rain = 0
KCO2 081705Z 35008KT 01/M00 A3034 RMK A01 T00051003  RH  094%=      5-min Rain = 0
KCO2 081706Z 36010KT 01/M00 A3034 RMK A01 T00051004  RH  094%=      5-min Rain = 0
KCO2 081707Z 36009KT 01/M00 A3034 RMK A01 T00051004  RH  094%=      5-min Rain = 0
KCO2 081708Z 35009KT 01/M00 A3034 RMK A01 T00051004  RH  094%=      5-min Rain = 0
KCO2 081709Z 36009KT 01/M00 A3034 RMK A01 T00051004  RH  094%=      5-min Rain = 0
KCO2 081710Z 00009KT 01/M00 A3034 RMK A01 T00051004  RH  094%=      5-min Rain = 0
KCO2 081711Z 00008KT 01/M00 A3034 RMK A01 T00051004  RH  094%=      5-min Rain = 0
KCO2 081712Z 35008KT 01/M00 A3034 RMK A01 T00061003  RH  094%=      5-min Rain = 0
KCO2 081713Z 35007KT 01/M00 A3034 RMK A01 T00061002  RH  094%=      5-min Rain = 0
KCO2 081714Z 36009KT 01/M00 A3034 RMK A01 T00071002  RH  094%=      5-min Rain = 0
KCO2 081715Z 35008KT 01/M00 A3034 RMK A01 T00071002  RH  094%=      5-min Rain = 0
KCO2 081716Z 36008KT 01/M00 A3034 RMK A01 T00071002  RH  094%=      5-min Rain = 0
KCO2 081717Z 01010KT 01/M00 A3034 RMK A01 T00071002  RH  093%=      5-min Rain = 0
KCO2 081718Z 36008KT 01/M00 A3034 RMK A01 T00071002  RH  093%=      5-min Rain = 0
KCO2 081719Z 00009KT 01/M00 A3034 RMK A01 T00071003  RH  093%=      5-min Rain = 0
KCO2 081720Z 35009KT 01/M00 A3034 RMK A01 T00071003  RH  093%=      5-min Rain = 0
KCO2 081721Z 35010KT 01/M01 A3034 RMK A01 T00061005  RH  092%=      5-min Rain = 0
KCO2 081722Z 35012KT 01/M01 A3034 RMK A01 T00061005  RH  093%=      5-min Rain = 0
KCO2 081723Z 35011KT 01/M01 A3034 RMK A01 T00061005  RH  092%=      5-min Rain = 0
KCO2 081724Z 35010KT 01/M01 A3034 RMK A01 T00061005  RH  092%=      5-min Rain = 0
KCO2 081725Z 34010KT 01/M01 A3034 RMK A01 T00061005  RH  092%=      5-min Rain = 0
KCO2 081726Z 36011KT 01/M01 A3034 RMK A01 T00061005  RH  093%=      5-min Rain = 0
KCO2 081727Z 36010KT 01/M01 A3034 RMK A01 T00061005  RH  093%=      5-min Rain = 0
KCO2 081728Z 35010KT 01/M00 A3034 RMK A01 T00061004  RH  093%=      5-min Rain = 0
KCO2 081729Z 35010KT 01/M01 A3034 RMK A01 T00061005  RH  093%=      5-min Rain = 0
KCO2 081730Z 35011KT 01/M01 A3034 RMK A01 T00061005  RH  093%=      5-min Rain = 0
KCO2 081731Z 35012KT 01/M01 A3034 RMK A01 T00051005  RH  093%=      5-min Rain = 0
KCO2 081732Z 35008G13KT 01/M01 A3034 RMK A01 T00051005  RH  093%=      5-min Rain = 0
KCO2 081733Z 34009KT 01/M00 A3034 RMK A01 T00061003  RH  093%=      5-min Rain = 0
KCO2 081734Z 00010KT 01/M00 A3034 RMK A01 T00061003  RH  093%=      5-min Rain = 0
KCO2 081735Z 00011KT 01/M00 A3034 RMK A01 T00061004  RH  093%=      5-min Rain = 0
KCO2 081736Z 01011KT 01/M00 A3034 RMK A01 T00061004  RH  093%=      5-min Rain = 0
KCO2 081737Z 35010KT 01/M01 A3034 RMK A01 T00061005  RH  093%=      5-min Rain = 0
KCO2 081738Z 35009KT 01/M01 A3034 RMK A01 T00061005  RH  092%=      5-min Rain = 0
KCO2 081739Z 36010KT 01/M00 A3034 RMK A01 T00071004  RH  093%=      5-min Rain = 0
KCO2 081740Z 36010KT 01/M00 A3034 RMK A01 T00071004  RH  092%=      5-min Rain = 0
KCO2 081741Z 36010KT 01/M01 A3034 RMK A01 T00071005  RH  092%=      5-min Rain = 0
KCO2 081742Z 36009KT 01/M01 A3034 RMK A01 T00061005  RH  092%=      5-min Rain = 0
KCO2 081743Z 36011KT 01/M00 A3034 RMK A01 T00071004  RH  092%=      5-min Rain = 0
KCO2 081744Z 35012KT 01/M00 A3033 RMK A01 T00071004  RH  092%=      5-min Rain = 0
KCO2 081745Z 35012KT 01/M01 A3033 RMK A01 T00061006  RH  091%=      5-min Rain = 0
KCO2 081746Z 00012KT 01/M01 A3033 RMK A01 T00061006  RH  091%=      5-min Rain = 0
KCO2 081747Z 01010KT 01/M01 A3033 RMK A01 T00061007  RH  091%=      5-min Rain = 0
KCO2 081748Z 36010KT 01/M01 A3033 RMK A01 T00071005  RH  092%=      5-min Rain = 0
KCO2 081749Z 35010KT 01/M01 A3033 RMK A01 T00081005  RH  092%=      5-min Rain = 0
KCO2 081750Z 00009KT 01/M01 A3033 RMK A01 T00081005  RH  092%=      5-min Rain = 0
KCO2 081751Z 36007KT 01/M01 A3033 RMK A01 T00081005  RH  092%=      5-min Rain = 0
KCO2 081752Z 00007KT 01/M00 A3033 RMK A01 T00091002  RH  092%=      5-min Rain = 0
KCO2 081753Z 00009KT 01/M00 A3033 RMK A01 T00101001  RH  093%=      5-min Rain = 0
KCO2 081754Z 36011KT 01/M00 A3033 RMK A01 T00101002  RH  092%=      5-min Rain = 0
KCO2 081755Z 00012KT 01/M00 A3033 RMK A01 T00091003  RH  091%=      5-min Rain = 0
KCO2 081756Z 01010KT 01/M00 A3033 RMK A01 T00091004  RH  091%=      5-min Rain = 0
KCO2 081757Z 36007KT 01/M00 A3033 RMK A01 T00091004  RH  091%=      5-min Rain = 0
KCO2 081758Z 00007KT 01/M00 A3033 RMK A01 T00101001  RH  092%=      5-min Rain = 0
KCO2 081759Z 35010KT 01/00 A3033 RMK A01 T00110000  RH  092%=      5-min Rain = 0
KCO2 081800Z 01010KT 01/M00 A3033 RMK A01 T00111002  RH  091%=      5-min Rain = 0
KCO2 081801Z 00011KT 01/M00 A3033 RMK A01 T00101003  RH  091%=      5-min Rain = 0
KCO2 081802Z 00010KT 01/M00 A3033 RMK A01 T00101003  RH  091%=      5-min Rain = 0
KCO2 081803Z 00008KT 01/M00 A3033 RMK A01 T00101003  RH  091%=      5-min Rain = 0
KCO2 081804Z 00008KT 01/M00 A3033 RMK A01 T00101002  RH  091%=      5-min Rain = 0
KCO2 081805Z 35006KT 01/00 A3033 RMK A01 T001100-0  RH  092%=      5-min Rain = 0
KCO2 081806Z 35007KT 01/00 A3033 RMK A01 T00130001  RH  092%=      5-min Rain = 0
KCO2 081807Z 01007KT 01/00 A3033 RMK A01 T00140003  RH  093%=      5-min Rain = 0
KCO2 081808Z 36010KT 02/00 A3032 RMK A01 T00150004  RH  093%=      5-min Rain = 0
KCO2 081809Z 35010KT 01/00 A3032 RMK A01 T00140002  RH  092%=      5-min Rain = 0
KCO2 081810Z 35009KT 01/00 A3032 RMK A01 T00130000  RH  091%=      5-min Rain = 0
KCO2 081811Z 36009KT 01/00 A3032 RMK A01 T00130000  RH  091%=      5-min Rain = 0
KCO2 081812Z 35007KT 01/00 A3032 RMK A01 T001300-0  RH  091%=      5-min Rain = 0
KCO2 081813Z 35008KT 01/00 A3032 RMK A01 T00140002  RH  092%=      5-min Rain = 0
KCO2 081814Z 34009KT 01/00 A3032 RMK A01 T00140003  RH  092%=      5-min Rain = 0
KCO2 081815Z 35010KT 01/00 A3032 RMK A01 T00140002  RH  092%=      5-min Rain = 0
KCO2 081816Z 35008KT 01/00 A3032 RMK A01 T00130001  RH  091%=      5-min Rain = 0
KCO2 081817Z 34010KT 01/00 A3032 RMK A01 T00130001  RH  091%=      5-min Rain = 0
KCO2 081818Z 34010KT 01/00 A3032 RMK A01 T00140001  RH  091%=      5-min Rain = 0
KCO2 081819Z 35012KT 01/00 A3032 RMK A01 T00140001  RH  091%=      5-min Rain = 0
KCO2 081820Z 35010KT 01/M00 A3032 RMK A01 T00131001  RH  090%=      5-min Rain = 0
KCO2 081821Z 35011KT 01/M00 A3032 RMK A01 T00131001  RH  091%=      5-min Rain = 0
KCO2 081822Z 35012KT 01/M00 A3032 RMK A01 T00131001  RH  091%=      5-min Rain = 0
KCO2 081823Z 34011KT 01/M00 A3032 RMK A01 T00131001  RH  090%=      5-min Rain = 0
KCO2 081824Z 35012KT 01/M00 A3032 RMK A01 T00131002  RH  090%=      5-min Rain = 0
KCO2 081825Z 34010KT 01/M00 A3032 RMK A01 T00121003  RH  089%=      5-min Rain = 0
KCO2 081826Z 35010KT 01/M00 A3032 RMK A01 T00121003  RH  090%=      5-min Rain = 0
KCO2 081827Z 35011KT 01/M00 A3032 RMK A01 T00121002  RH  090%=      5-min Rain = 0
KCO2 081828Z 34010KT 01/M00 A3032 RMK A01 T00121002  RH  090%=      5-min Rain = 0
KCO2 081829Z 35011KT 01/M00 A3032 RMK A01 T00131001  RH  091%=      5-min Rain = 0
KCO2 081830Z 35011KT 01/M00 A3032 RMK A01 T00131001  RH  090%=      5-min Rain = 0
KCO2 081831Z 35011KT 01/M00 A3032 RMK A01 T00131002  RH  090%=      5-min Rain = 0
KCO2 081832Z 35012KT 01/M00 A3032 RMK A01 T00121003  RH  090%=      5-min Rain = 0
KCO2 081833Z 35011KT 01/M00 A3032 RMK A01 T00121003  RH  090%=      5-min Rain = 0
KCO2 081834Z 35011KT 01/M00 A3032 RMK A01 T00121003  RH  090%=      5-min Rain = 0
KCO2 081835Z 35011KT 01/M00 A3032 RMK A01 T00121003  RH  090%=      5-min Rain = 0
KCO2 081836Z 35012KT 01/M00 A3032 RMK A01 T00121002  RH  090%=      5-min Rain = 0
KCO2 081837Z 35009KT 01/M00 A3032 RMK A01 T00121003  RH  090%=      5-min Rain = 0
KCO2 081838Z 35009KT 01/M00 A3032 RMK A01 T00121002  RH  090%=      5-min Rain = 0
KCO2 081839Z 35010KT 01/M00 A3032 RMK A01 T00131001  RH  090%=      5-min Rain = 0
KCO2 081840Z 34010KT 01/M00 A3032 RMK A01 T00131002  RH  090%=      5-min Rain = 0
KCO2 081841Z 34009KT 01/M00 A3031 RMK A01 T00131002  RH  090%=      5-min Rain = 0
KCO2 081842Z 34009KT 01/M00 A3031 RMK A01 T00121002  RH  090%=      5-min Rain = 0
KCO2 081843Z 36012KT 01/M00 A3031 RMK A01 T00131002  RH  090%=      5-min Rain = 0
KCO2 081844Z 35008KT 01/M00 A3031 RMK A01 T00131003  RH  089%=      5-min Rain = 0
KCO2 081845Z 36008KT 01/M00 A3031 RMK A01 T00131001  RH  090%=      5-min Rain = 0
KCO2 081846Z 35010KT 01/00 A3031 RMK A01 T001400-0  RH  090%=      5-min Rain = 0
KCO2 081847Z 35008KT 01/M00 A3031 RMK A01 T00141001  RH  089%=      5-min Rain = 0
KCO2 081848Z 35009KT 02/00 A3031 RMK A01 T00150001  RH  090%=      5-min Rain = 0
KCO2 081849Z 34010KT 02/00 A3031 RMK A01 T00160003  RH  091%=      5-min Rain = 0
KCO2 081850Z 34011KT 02/00 A3031 RMK A01 T00150000  RH  090%=      5-min Rain = 0
KCO2 081851Z 34011KT 02/M00 A3031 RMK A01 T00151001  RH  090%=      5-min Rain = 0
KCO2 081852Z 35011KT 01/M00 A3031 RMK A01 T00141001  RH  090%=      5-min Rain = 0
KCO2 081853Z 36011KT 02/00 A3031 RMK A01 T001500-0  RH  090%=      5-min Rain = 0
KCO2 081854Z 35012KT 02/00 A3031 RMK A01 T001500-0  RH  090%=      5-min Rain = 0
KCO2 081855Z 35011KT 01/M00 A3031 RMK A01 T00141002  RH  089%=      5-min Rain = 0
KCO2 081856Z 35011KT 01/M00 A3031 RMK A01 T00141001  RH  090%=      5-min Rain = 0
KCO2 081857Z 35011KT 01/00 A3031 RMK A01 T001400-0  RH  090%=      5-min Rain = 0
KCO2 081858Z 35010KT 02/00 A3031 RMK A01 T00150001  RH  090%=      5-min Rain = 0
KCO2 081859Z 35010KT 02/00 A3031 RMK A01 T00160002  RH  090%=      5-min Rain = 0
KCO2 081900Z 35007KT 02/00 A3031 RMK A01 T00170002  RH  090%=      5-min Rain = 0
KCO2 081901Z 35009KT 02/01 A3031 RMK A01 T00190006  RH  091%=      5-min Rain = 0
KCO2 081902Z 36010KT 02/01 A3031 RMK A01 T00190005  RH  091%=      5-min Rain = 0
KCO2 081903Z 36010KT 02/00 A3031 RMK A01 T00180003  RH  090%=      5-min Rain = 0
KCO2 081904Z 35008KT 02/00 A3031 RMK A01 T00180003  RH  090%=      5-min Rain = 0
KCO2 081905Z 35008KT 02/01 A3031 RMK A01 T00180006  RH  091%=      5-min Rain = 0
KCO2 081906Z 34011KT 02/01 A3031 RMK A01 T00180005  RH  091%=      5-min Rain = 0
KCO2 081907Z 35007KT 02/00 A3031 RMK A01 T00180004  RH  091%=      5-min Rain = 0
KCO2 081908Z 35010KT 02/01 A3031 RMK A01 T00180006  RH  091%=      5-min Rain = 0
KCO2 081909Z 35010KT 02/00 A3031 RMK A01 T00180004  RH  091%=      5-min Rain = 0
KCO2 081910Z 34008KT 02/00 A3031 RMK A01 T00180004  RH  091%=      5-min Rain = 0
KCO2 081911Z 34009KT 02/01 A3031 RMK A01 T00180005  RH  091%=      5-min Rain = 0
KCO2 081912Z 35011KT 02/01 A3031 RMK A01 T00180005  RH  091%=      5-min Rain = 0
KCO2 081913Z 34008KT 02/00 A3031 RMK A01 T00170003  RH  090%=      5-min Rain = 0
KCO2 081914Z 34009KT 02/00 A3031 RMK A01 T00170001  RH  090%=      5-min Rain = 0
KCO2 081915Z 34009KT 02/00 A3031 RMK A01 T00160001  RH  090%=      5-min Rain = 0
KCO2 081916Z 34009KT 02/00 A3031 RMK A01 T00160001  RH  090%=      5-min Rain = 0
KCO2 081917Z 33010KT 02/00 A3031 RMK A01 T00160001  RH  090%=      5-min Rain = 0
KCO2 081918Z 33011KT 02/00 A3031 RMK A01 T00160000  RH  089%=      5-min Rain = 0
KCO2 081919Z 35010KT 02/M00 A3031 RMK A01 T00151001  RH  089%=      5-min Rain = 0
KCO2 081920Z 35009KT 02/M00 A3031 RMK A01 T00151001  RH  089%=      5-min Rain = 0
KCO2 081921Z 34010KT 02/M00 A303 RMK A01 T00151001  RH  090%=      5-min Rain = 0
KCO2 081922Z 35010KT 02/00 A303 RMK A01 T001500-0  RH  090%=      5-min Rain = 0
KCO2 081923Z 35010KT 02/M00 A303 RMK A01 T00151001  RH  089%=      5-min Rain = 0
KCO2 081924Z 35009KT 02/00 A303 RMK A01 T001500-0  RH  090%=      5-min Rain = 0
KCO2 081925Z 35008KT 02/00 A303 RMK A01 T00170003  RH  090%=      5-min Rain = 0
KCO2 081926Z 35010KT 02/00 A303 RMK A01 T00180003  RH  090%=      5-min Rain = 0
KCO2 081927Z 36008KT 02/00 A303 RMK A01 T00170001  RH  089%=      5-min Rain = 0
KCO2 081928Z 00011KT 02/00 A303 RMK A01 T00190002  RH  089%=      5-min Rain = 0
KCO2 081929Z 36011KT 02/00 A303 RMK A01 T00190000  RH  088%=      5-min Rain = 0
KCO2 081930Z 36010KT 02/00 A303 RMK A01 T001900-0  RH  087%=      5-min Rain = 0
KCO2 081931Z 35011KT 02/00 A303 RMK A01 T00190000  RH  087%=      5-min Rain = 0
KCO2 081932Z 34010KT 02/00 A303 RMK A01 T00190001  RH  088%=      5-min Rain = 0
KCO2 081933Z 35010KT 02/00 A303 RMK A01 T00190000  RH  088%=      5-min Rain = 0
KCO2 081934Z 34009KT 02/M00 A303 RMK A01 T00181002  RH  087%=      5-min Rain = 0
KCO2 081935Z 35009KT 02/M00 A303 RMK A01 T00171002  RH  087%=      5-min Rain = 0
KCO2 081936Z 35008KT 02/M00 A303 RMK A01 T00171001  RH  088%=      5-min Rain = 0
KCO2 081937Z 35010KT 02/M00 A303 RMK A01 T00171001  RH  088%=      5-min Rain = 0
KCO2 081938Z 35010KT 02/00 A303 RMK A01 T001700-0  RH  088%=      5-min Rain = 0
KCO2 081939Z 34009KT 02/00 A303 RMK A01 T00180000  RH  088%=      5-min Rain = 0
KCO2 081940Z 35010KT 02/00 A303 RMK A01 T00180000  RH  088%=      5-min Rain = 0
KCO2 081941Z 35010KT 02/M00 A303 RMK A01 T00171001  RH  088%=      5-min Rain = 0
KCO2 081942Z 34009KT 02/00 A303 RMK A01 T001700-0  RH  088%=      5-min Rain = 0
KCO2 081943Z 34010KT 02/00 A303 RMK A01 T00170001  RH  089%=      5-min Rain = 0
KCO2 081944Z 35009KT 02/00 A303 RMK A01 T00170001  RH  089%=      5-min Rain = 0
KCO2 081945Z 35010KT 02/00 A303 RMK A01 T00170001  RH  089%=      5-min Rain = 0
KCO2 081946Z 34012KT 02/00 A303 RMK A01 T00170000  RH  088%=      5-min Rain = 0
KCO2 081947Z 34008KT 02/M00 A303 RMK A01 T00161003  RH  087%=      5-min Rain = 0
KCO2 081948Z 33007KT 02/M00 A303 RMK A01 T00171001  RH  088%=      5-min Rain = 0
KCO2 081949Z 34010KT 02/00 A303 RMK A01 T00180002  RH  089%=      5-min Rain = 0
KCO2 081950Z 34010KT 02/00 A303 RMK A01 T00180001  RH  088%=      5-min Rain = 0
KCO2 081951Z 34008KT 02/00 A303 RMK A01 T001900-0  RH  087%=      5-min Rain = 0
KCO2 081952Z 35010KT 02/00 A303 RMK A01 T00190001  RH  088%=      5-min Rain = 0
KCO2 081953Z 35010KT 02/00 A303 RMK A01 T00190000  RH  087%=      5-min Rain = 0
KCO2 081954Z 34010KT 02/M00 A303 RMK A01 T00191001  RH  087%=      5-min Rain = 0
KCO2 081955Z 35008G13KT 02/00 A303 RMK A01 T00190000  RH  088%=      5-min Rain = 0
KCO2 081956Z 36012KT 02/00 A303 RMK A01 T00190001  RH  088%=      5-min Rain = 0
KCO2 081957Z 36009KT 02/M00 A303 RMK A01 T00181001  RH  087%=      5-min Rain = 0
KCO2 081958Z 00008KT 02/M00 A303 RMK A01 T00181001  RH  087%=      5-min Rain = 0
KCO2 081959Z 36008KT 02/00 A303 RMK A01 T00180000  RH  088%=      5-min Rain = 0
KCO2 082000Z 36008KT 02/00 A303 RMK A01 T00190001  RH  088%=      5-min Rain = 0
KCO2 082001Z 35009KT 02/00 A303 RMK A01 T00190001  RH  088%=      5-min Rain = 0
KCO2 082002Z 35011KT 02/00 A303 RMK A01 T00190000  RH  087%=      5-min Rain = 0
KCO2 082003Z 36011KT 02/M00 A303 RMK A01 T00181002  RH  086%=      5-min Rain = 0
KCO2 082004Z 35009KT 02/M00 A303 RMK A01 T00181002  RH  087%=      5-min Rain = 0
KCO2 082005Z 35009KT 02/M00 A3029 RMK A01 T00181002  RH  087%=      5-min Rain = 0
KCO2 082006Z 34008KT 02/M00 A3029 RMK A01 T00171003  RH  087%=      5-min Rain = 0
KCO2 082007Z 33009KT 02/M00 A3029 RMK A01 T00181001  RH  088%=      5-min Rain = 0
KCO2 082008Z 34011KT 02/00 A3029 RMK A01 T001800-0  RH  088%=      5-min Rain = 0
KCO2 082009Z 35009KT 02/M00 A3029 RMK A01 T00171002  RH  087%=      5-min Rain = 0
KCO2 082010Z 35009KT 02/M00 A3029 RMK A01 T00171001  RH  088%=      5-min Rain = 0
KCO2 082011Z 35009KT 02/M00 A3029 RMK A01 T00171001  RH  088%=      5-min Rain = 0
KCO2 082012Z 35008KT 02/M00 A3029 RMK A01 T00181001  RH  087%=      5-min Rain = 0
KCO2 082013Z 36007KT 02/00 A3029 RMK A01 T001800-0  RH  088%=      5-min Rain = 0
KCO2 082014Z 35007KT 02/00 A3029 RMK A01 T00190001  RH  088%=      5-min Rain = 0
KCO2 082015Z 01008KT 02/00 A3029 RMK A01 T00200002  RH  088%=      5-min Rain = 0
KCO2 082016Z 36010KT 02/00 A3029 RMK A01 T00210001  RH  087%=      5-min Rain = 0
KCO2 082017Z 35008KT 02/M00 A3029 RMK A01 T00211001  RH  086%=      5-min Rain = 0
KCO2 082018Z 35007KT 02/00 A3029 RMK A01 T00210000  RH  086%=      5-min Rain = 0
KCO2 082019Z 34006KT 02/00 A3029 RMK A01 T00230002  RH  086%=      5-min Rain = 0
KCO2 082020Z 34008KT 02/00 A3029 RMK A01 T00240004  RH  087%=      5-min Rain = 0
KCO2 082021Z 34008KT 02/00 A3029 RMK A01 T00230001  RH  085%=      5-min Rain = 0
KCO2 082022Z 34007KT 02/00 A3028 RMK A01 T00230000  RH  085%=      5-min Rain = 0
KCO2 082023Z 35008KT 02/00 A3028 RMK A01 T00230001  RH  086%=      5-min Rain = 0
KCO2 082024Z 00007KT 02/00 A3028 RMK A01 T00230002  RH  086%=      5-min Rain = 0
KCO2 082025Z 36009KT 02/00 A3028 RMK A01 T00230002  RH  086%=      5-min Rain = 0
KCO2 082026Z 35008KT 02/00 A3028 RMK A01 T00230001  RH  085%=      5-min Rain = 0
KCO2 082027Z 35007KT 02/M00 A3028 RMK A01 T00221001  RH  085%=      5-min Rain = 0
KCO2 082028Z 35008KT 02/M00 A3028 RMK A01 T00211002  RH  085%=      5-min Rain = 0
KCO2 082029Z 35008KT 02/00 A3028 RMK A01 T002100-0  RH  086%=      5-min Rain = 0
KCO2 082030Z 36008KT 02/00 A3028 RMK A01 T002100-0  RH  086%=      5-min Rain = 0
KCO2 082031Z 35007KT 02/00 A3028 RMK A01 T00210001  RH  086%=      5-min Rain = 0
KCO2 082032Z 36007KT 02/00 A3028 RMK A01 T00210002  RH  087%=      5-min Rain = 0
KCO2 082033Z 34008KT 02/00 A3028 RMK A01 T00210001  RH  087%=      5-min Rain = 0
KCO2 082034Z 35007KT 02/00 A3028 RMK A01 T00220001  RH  086%=      5-min Rain = 0
KCO2 082035Z 34009KT 02/00 A3028 RMK A01 T00220002  RH  087%=      5-min Rain = 0
KCO2 082036Z 34008KT 02/00 A3029 RMK A01 T00210001  RH  087%=      5-min Rain = 0
KCO2 082037Z 34009KT 02/00 A3029 RMK A01 T00220003  RH  087%=      5-min Rain = 0
KCO2 082038Z 33009KT 02/00 A3029 RMK A01 T00220002  RH  087%=      5-min Rain = 0
KCO2 082039Z 33008KT 02/00 A3029 RMK A01 T00210001  RH  087%=      5-min Rain = 0
KCO2 082040Z 34009KT 02/00 A3029 RMK A01 T00210001  RH  087%=      5-min Rain = 0
KCO2 082041Z 32008KT 02/00 A3028 RMK A01 T00210002  RH  087%=      5-min Rain = 0
KCO2 082042Z 35009KT 02/00 A3028 RMK A01 T00230003  RH  087%=      5-min Rain = 0
KCO2 082043Z 35007KT 02/00 A3028 RMK A01 T00230002  RH  086%=      5-min Rain = 0
KCO2 082044Z 34008KT 02/00 A3028 RMK A01 T00230003  RH  086%=      5-min Rain = 0
KCO2 082045Z 35007KT 02/M00 A3028 RMK A01 T00231001  RH  084%=      5-min Rain = 0
KCO2 082046Z 00007KT 02/M00 A3028 RMK A01 T00231001  RH  084%=      5-min Rain = 0
KCO2 082047Z 35009KT 03/00 A3028 RMK A01 T00250001  RH  085%=      5-min Rain = 0
KCO2 082048Z 35008KT 03/M00 A3028 RMK A01 T00251001  RH  083%=      5-min Rain = 0
KCO2 082049Z 36006KT 02/M00 A3028 RMK A01 T00241004  RH  082%=      5-min Rain = 0
KCO2 082050Z 35007KT 02/M00 A3028 RMK A01 T00241004  RH  082%=      5-min Rain = 0
KCO2 082051Z 35008KT 02/M00 A3028 RMK A01 T00241001  RH  083%=      5-min Rain = 0
KCO2 082052Z 34007KT 03/M00 A3028 RMK A01 T00251001  RH  083%=      5-min Rain = 0
KCO2 082053Z 36008KT 03/00 A3028 RMK A01 T00260000  RH  083%=      5-min Rain = 0
KCO2 082054Z 36008KT 03/00 A3028 RMK A01 T00270001  RH  083%=      5-min Rain = 0
KCO2 082055Z 35009KT 03/00 A3028 RMK A01 T00270000  RH  083%=      5-min Rain = 0
KCO2 082056Z 35008KT 03/00 A3028 RMK A01 T00270000  RH  083%=      5-min Rain = 0
KCO2 082057Z 00010KT 03/M00 A3028 RMK A01 T00261001  RH  082%=      5-min Rain = 0
KCO2 082058Z 00009KT 03/M00 A3028 RMK A01 T00261001  RH  082%=      5-min Rain = 0
KCO2 082059Z 35009KT 03/00 A3028 RMK A01 T002600-0  RH  083%=      5-min Rain = 0
KCO2 082100Z 35009KT 03/00 A3028 RMK A01 T00260001  RH  083%=      5-min Rain = 0
KCO2 082101Z 36008KT 03/M00 A3028 RMK A01 T00251001  RH  083%=      5-min Rain = 0
KCO2 082102Z 35009KT 03/00 A3028 RMK A01 T00250000  RH  084%=      5-min Rain = 0
KCO2 082103Z 35007KT 03/00 A3028 RMK A01 T00250001  RH  084%=      5-min Rain = 0
KCO2 082104Z 34008KT 03/00 A3028 RMK A01 T00250002  RH  085%=      5-min Rain = 0
KCO2 082105Z 34009KT 03/00 A3028 RMK A01 T00250002  RH  085%=      5-min Rain = 0
KCO2 082106Z 35008KT 03/00 A3028 RMK A01 T00250002  RH  085%=      5-min Rain = 0
KCO2 082107Z 35009KT 03/00 A3028 RMK A01 T00250002  RH  085%=      5-min Rain = 0
KCO2 082108Z 35010KT 03/00 A3028 RMK A01 T00250002  RH  084%=      5-min Rain = 0
KCO2 082109Z 36009KT 03/00 A3028 RMK A01 T00250000  RH  084%=      5-min Rain = 0
KCO2 082110Z 00007KT 02/00 A3028 RMK A01 T00240001  RH  084%=      5-min Rain = 0
KCO2 082111Z 01007KT 02/00 A3028 RMK A01 T00240002  RH  085%=      5-min Rain = 0
KCO2 082112Z 36006KT 03/00 A3028 RMK A01 T00250002  RH  085%=      5-min Rain = 0
KCO2 082113Z 35009KT 03/00 A3028 RMK A01 T00260004  RH  085%=      5-min Rain = 0
KCO2 082114Z 35010KT 03/00 A3028 RMK A01 T00270003  RH  084%=      5-min Rain = 0
KCO2 082115Z 34010KT 03/00 A3028 RMK A01 T00270002  RH  084%=      5-min Rain = 0
KCO2 082116Z 34008KT 03/00 A3028 RMK A01 T00260001  RH  083%=      5-min Rain = 0
KCO2 082117Z 34007KT 03/00 A3028 RMK A01 T00260002  RH  084%=      5-min Rain = 0
KCO2 082118Z 34007KT 03/00 A3028 RMK A01 T00270004  RH  084%=      5-min Rain = 0
KCO2 082119Z 36007KT 03/01 A3028 RMK A01 T00290005  RH  084%=      5-min Rain = 0
KCO2 082120Z 35006KT 03/01 A3028 RMK A01 T00290005  RH  084%=      5-min Rain = 0
KCO2 082121Z 34005KT 03/01 A3028 RMK A01 T00310008  RH  085%=      5-min Rain = 0
KCO2 082122Z 35008KT 03/01 A3028 RMK A01 T00320008  RH  085%=      5-min Rain = 0
KCO2 082123Z 35008KT 03/00 A3028 RMK A01 T00310004  RH  083%=      5-min Rain = 0
KCO2 082124Z 35007KT 03/00 A3028 RMK A01 T00290003  RH  083%=      5-min Rain = 0
KCO2 082125Z 35010KT 03/01 A3028 RMK A01 T00300005  RH  084%=      5-min Rain = 0
KCO2 082126Z 36007KT 03/00 A3028 RMK A01 T00290002  RH  083%=      5-min Rain = 0
KCO2 082127Z 35008KT 03/00 A3028 RMK A01 T00290003  RH  083%=      5-min Rain = 0
KCO2 082128Z 34008KT 03/00 A3028 RMK A01 T00280003  RH  083%=      5-min Rain = 0
KCO2 082129Z 33008KT 03/00 A3028 RMK A01 T00280003  RH  084%=      5-min Rain = 0
KCO2 082130Z 32007KT 03/00 A3028 RMK A01 T00280003  RH  084%=      5-min Rain = 0
KCO2 082131Z 36007KT 03/00 A3028 RMK A01 T00280003  RH  083%=      5-min Rain = 0
KCO2 082132Z 00007KT 03/00 A3028 RMK A01 T00280002  RH  083%=      5-min Rain = 0
KCO2 082133Z 00006KT 03/00 A3028 RMK A01 T00280002  RH  083%=      5-min Rain = 0
KCO2 082134Z 35008KT 03/00 A3028 RMK A01 T00280003  RH  083%=      5-min Rain = 0
KCO2 082135Z 36008KT 03/00 A3028 RMK A01 T00280002  RH  083%=      5-min Rain = 0
KCO2 082136Z 36008KT 03/00 A3028 RMK A01 T00280002  RH  083%=      5-min Rain = 0
KCO2 082137Z 33007KT 03/00 A3028 RMK A01 T00270002  RH  084%=      5-min Rain = 0
KCO2 082138Z 33007KT 03/00 A3028 RMK A01 T00280004  RH  085%=      5-min Rain = 0
KCO2 082139Z 33007KT 03/01 A3028 RMK A01 T00280005  RH  084%=      5-min Rain = 0
KCO2 082140Z 33006KT 03/00 A3028 RMK A01 T00280003  RH  083%=      5-min Rain = 0
KCO2 082141Z 32005KT 03/00 A3028 RMK A01 T00270001  RH  083%=      5-min Rain = 0
KCO2 082142Z 34005KT 03/00 A3028 RMK A01 T00270002  RH  083%=      5-min Rain = 0
KCO2 082143Z 33006KT 03/00 A3028 RMK A01 T00280003  RH  084%=      5-min Rain = 0
KCO2 082144Z 33006KT 03/00 A3028 RMK A01 T00280002  RH  083%=      5-min Rain = 0
KCO2 082145Z 35006KT 03/00 A3028 RMK A01 T00280003  RH  084%=      5-min Rain = 0
KCO2 082146Z 35006KT 03/00 A3028 RMK A01 T00280004  RH  084%=      5-min Rain = 0
KCO2 082147Z 35006KT 03/00 A3028 RMK A01 T00290003  RH  083%=      5-min Rain = 0
KCO2 082148Z 35007KT 03/00 A3028 RMK A01 T00290002  RH  083%=      5-min Rain = 0
KCO2 082149Z 35006KT 03/00 A3028 RMK A01 T00280001  RH  083%=      5-min Rain = 0
KCO2 082150Z 35006KT 03/00 A3027 RMK A01 T00270001  RH  083%=      5-min Rain = 0
KCO2 082151Z 34007KT 03/00 A3027 RMK A01 T00280001  RH  083%=      5-min Rain = 0
KCO2 082152Z 33007KT 03/00 A3027 RMK A01 T00280002  RH  083%=      5-min Rain = 0
KCO2 082153Z 34006KT 03/00 A3027 RMK A01 T00290003  RH  083%=      5-min Rain = 0
KCO2 082154Z 34006KT 03/00 A3027 RMK A01 T00300003  RH  083%=      5-min Rain = 0
KCO2 082155Z 34006KT 03/00 A3027 RMK A01 T00300003  RH  082%=      5-min Rain = 0
KCO2 082156Z 34008KT 03/00 A3027 RMK A01 T00310004  RH  082%=      5-min Rain = 0
KCO2 082157Z 35006KT 03/00 A3027 RMK A01 T00310002  RH  082%=      5-min Rain = 0
KCO2 082158Z 34005KT 03/00 A3027 RMK A01 T00310002  RH  082%=      5-min Rain = 0
KCO2 082159Z 34005KT 03/00 A3027 RMK A01 T00300001  RH  081%=      5-min Rain = 0
KCO2 082200Z 34006KT 03/00 A3027 RMK A01 T00300003  RH  082%=      5-min Rain = 0
KCO2 082201Z 35005KT 03/01 A3027 RMK A01 T00310005  RH  083%=      5-min Rain = 0
KCO2 082202Z 35006KT 03/00 A3027 RMK A01 T00320004  RH  082%=      5-min Rain = 0
KCO2 082203Z 00006KT 03/00 A3027 RMK A01 T00310003  RH  082%=      5-min Rain = 0
KCO2 082204Z 36006KT 03/00 A3027 RMK A01 T00310003  RH  082%=      5-min Rain = 0
KCO2 082205Z 35006KT 03/00 A3027 RMK A01 T00300003  RH  082%=      5-min Rain = 0
KCO2 082206Z 35005KT 03/00 A3027 RMK A01 T00300004  RH  083%=      5-min Rain = 0
KCO2 082207Z 35007KT 03/01 A3027 RMK A01 T00310005  RH  083%=      5-min Rain = 0
KCO2 082208Z 00006KT 03/00 A3027 RMK A01 T00300002  RH  082%=      5-min Rain = 0
KCO2 082209Z 36007KT 03/00 A3027 RMK A01 T00300003  RH  083%=      5-min Rain = 0
KCO2 082210Z 35007KT 03/00 A3027 RMK A01 T00290003  RH  083%=      5-min Rain = 0
KCO2 082211Z 35008KT 03/00 A3027 RMK A01 T00300004  RH  084%=      5-min Rain = 0
KCO2 082212Z 34008KT 03/00 A3027 RMK A01 T00290004  RH  084%=      5-min Rain = 0
KCO2 082213Z 34007KT 03/00 A3027 RMK A01 T00290003  RH  083%=      5-min Rain = 0
KCO2 082214Z 35006KT 03/00 A3027 RMK A01 T00290003  RH  083%=      5-min Rain = 0
KCO2 082215Z 35006KT 03/01 A3027 RMK A01 T00290005  RH  084%=      5-min Rain = 0
KCO2 082216Z 34005KT 03/00 A3027 RMK A01 T00290004  RH  084%=      5-min Rain = 0
KCO2 082217Z 35005KT 03/00 A3027 RMK A01 T00280004  RH  084%=      5-min Rain = 0
KCO2 082218Z 01006KT 03/00 A3027 RMK A01 T00290004  RH  084%=      5-min Rain = 0
KCO2 082219Z 01007KT 03/01 A3027 RMK A01 T00290005  RH  084%=      5-min Rain = 0
KCO2 082220Z 36008KT 03/01 A3027 RMK A01 T00290005  RH  084%=      5-min Rain = 0
KCO2 082221Z 00008KT 03/00 A3027 RMK A01 T00290004  RH  084%=      5-min Rain = 0
KCO2 082222Z 36007KT 03/01 A3027 RMK A01 T00290005  RH  084%=      5-min Rain = 0
KCO2 082223Z 35006KT 03/01 A3027 RMK A01 T00290005  RH  084%=      5-min Rain = 0
KCO2 082224Z 35006KT 03/00 A3027 RMK A01 T00280004  RH  084%=      5-min Rain = 0
KCO2 082225Z 35007KT 03/01 A3027 RMK A01 T00290006  RH  085%=      5-min Rain = 0
KCO2 082226Z 35008KT 03/01 A3027 RMK A01 T00290006  RH  085%=      5-min Rain = 0
KCO2 082227Z 35008KT 03/01 A3027 RMK A01 T00290006  RH  085%=      5-min Rain = 0.01
KCO2 082228Z 35007KT 03/01 A3027 RMK A01 T00290005  RH  085%=      5-min Rain = 0
KCO2 082229Z 35006KT 03/01 A3027 RMK A01 T00290007  RH  085%=      5-min Rain = 0
KCO2 082230Z 34006KT 03/01 A3027 RMK A01 T00300008  RH  085%=      5-min Rain = 0
KCO2 082231Z 36007KT 03/01 A3027 RMK A01 T00310008  RH  085%=      5-min Rain = 0
KCO2 082232Z 01008KT 03/01 A3027 RMK A01 T00310007  RH  085%=      5-min Rain = 0
KCO2 082233Z 01006KT 03/01 A3027 RMK A01 T00300006  RH  084%=      5-min Rain = 0
KCO2 082234Z 01006KT 03/01 A3027 RMK A01 T00300006  RH  085%=      5-min Rain = 0
KCO2 082235Z 01007KT 03/01 A3027 RMK A01 T00290006  RH  085%=      5-min Rain = 0
KCO2 082236Z 01008KT 03/01 A3027 RMK A01 T00290006  RH  085%=      5-min Rain = 0
KCO2 082237Z 00006KT 03/01 A3027 RMK A01 T00290005  RH  084%=      5-min Rain = 0
KCO2 082238Z 35007KT 03/01 A3027 RMK A01 T00280005  RH  085%=      5-min Rain = 0
KCO2 082239Z 35008KT 03/01 A3027 RMK A01 T00280006  RH  085%=      5-min Rain = 0
KCO2 082240Z 35008KT 03/01 A3027 RMK A01 T00280005  RH  085%=      5-min Rain = 0
KCO2 082241Z 35006KT 03/00 A3028 RMK A01 T00280004  RH  084%=      5-min Rain = 0
KCO2 082242Z 36005KT 03/00 A3028 RMK A01 T00280004  RH  084%=      5-min Rain = 0
KCO2 082243Z 36006KT 03/00 A3028 RMK A01 T00280004  RH  084%=      5-min Rain = 0
KCO2 082244Z 36007KT 03/00 A3028 RMK A01 T00270004  RH  085%=      5-min Rain = 0
KCO2 082245Z 34007KT 03/01 A3028 RMK A01 T00280005  RH  085%=      5-min Rain = 0
KCO2 082246Z 34007KT 03/01 A3028 RMK A01 T00280006  RH  086%=      5-min Rain = 0
KCO2 082247Z 35008KT 03/01 A3028 RMK A01 T00270005  RH  085%=      5-min Rain = 0
KCO2 082248Z 35008KT 03/01 A3028 RMK A01 T00270005  RH  085%=      5-min Rain = 0
KCO2 082249Z 35008KT 03/01 A3028 RMK A01 T00270005  RH  085%=      5-min Rain = 0
KCO2 082250Z 35006KT 03/01 A3028 RMK A01 T00270005  RH  085%=      5-min Rain = 0
KCO2 082251Z 35008KT 03/00 A3028 RMK A01 T00270004  RH  085%=      5-min Rain = 0
KCO2 082252Z 35007KT 03/00 A3028 RMK A01 T00270004  RH  085%=      5-min Rain = 0
KCO2 082253Z 36007KT 03/00 A3028 RMK A01 T00270004  RH  085%=      5-min Rain = 0
KCO2 082254Z 36007KT 03/00 A3028 RMK A01 T00270004  RH  085%=      5-min Rain = 0
KCO2 082255Z 01005KT 03/01 A3028 RMK A01 T00270005  RH  085%=      5-min Rain = 0
KCO2 082256Z 36005KT 03/01 A3028 RMK A01 T00270005  RH  086%=      5-min Rain = 0
KCO2 082257Z 01007KT 03/01 A3028 RMK A01 T00270005  RH  086%=      5-min Rain = 0
KCO2 082258Z 00007KT 03/01 A3028 RMK A01 T00270006  RH  086%=      5-min Rain = 0
KCO2 082259Z 01007KT 03/01 A3028 RMK A01 T00270006  RH  086%=      5-min Rain = 0
KCO2 082300Z 01006KT 03/01 A3028 RMK A01 T00270006  RH  086%=      5-min Rain = 0
KCO2 082301Z 00007KT 03/01 A3028 RMK A01 T00270006  RH  086%=      5-min Rain = 0
KCO2 082302Z 01006KT 03/01 A3028 RMK A01 T00260006  RH  086%=      5-min Rain = 0
KCO2 082303Z 01005KT 03/01 A3028 RMK A01 T00270007  RH  087%=      5-min Rain = 0
KCO2 082304Z 01006KT 03/01 A3028 RMK A01 T00270007  RH  087%=      5-min Rain = 0
KCO2 082305Z 00006KT 03/01 A3029 RMK A01 T00270007  RH  087%=      5-min Rain = 0
KCO2 082306Z 00006KT 03/01 A3029 RMK A01 T00260006  RH  087%=      5-min Rain = 0
KCO2 082307Z 01007KT 03/01 A3029 RMK A01 T00260006  RH  086%=      5-min Rain = 0
KCO2 082308Z 01006KT 03/00 A3029 RMK A01 T00250004  RH  086%=      5-min Rain = 0
KCO2 082309Z 01005KT 03/00 A3029 RMK A01 T00250004  RH  086%=      5-min Rain = 0
KCO2 082310Z 01005KT 02/00 A3029 RMK A01 T00240004  RH  086%=      5-min Rain = 0
KCO2 082311Z 36005KT 02/00 A3029 RMK A01 T00240004  RH  087%=      5-min Rain = 0
KCO2 082312Z 34005KT 02/01 A3029 RMK A01 T00240005  RH  087%=      5-min Rain = 0
KCO2 082313Z 35004KT 02/01 A3029 RMK A01 T00240005  RH  087%=      5-min Rain = 0
KCO2 082314Z 35005KT 02/01 A3029 RMK A01 T00240005  RH  087%=      5-min Rain = 0
KCO2 082315Z 35004KT 02/01 A3029 RMK A01 T00240005  RH  087%=      5-min Rain = 0
KCO2 082316Z 35004KT 02/01 A3029 RMK A01 T00240005  RH  087%=      5-min Rain = 0
KCO2 082317Z 35004KT 02/01 A3029 RMK A01 T00240006  RH  087%=      5-min Rain = 0
KCO2 082318Z 35005KT 02/01 A3029 RMK A01 T00240005  RH  087%=      5-min Rain = 0
KCO2 082319Z 34004KT 02/01 A3029 RMK A01 T00240005  RH  087%=      5-min Rain = 0
KCO2 082320Z 34004KT 02/00 A3029 RMK A01 T00230004  RH  087%=      5-min Rain = 0
KCO2 082321Z 34005KT 02/00 A3029 RMK A01 T00230004  RH  087%=      5-min Rain = 0
KCO2 082322Z 34005KT 02/00 A3029 RMK A01 T00230004  RH  087%=      5-min Rain = 0
KCO2 082323Z 34005KT 02/00 A3029 RMK A01 T00230004  RH  087%=      5-min Rain = 0
KCO2 082324Z 33004KT 02/00 A303 RMK A01 T00230004  RH  087%=      5-min Rain = 0
KCO2 082325Z 33004KT 02/00 A3029 RMK A01 T00230004  RH  088%=      5-min Rain = 0
KCO2 082326Z 33004KT 02/00 A3029 RMK A01 T00220004  RH  088%=      5-min Rain = 0
KCO2 082327Z 33006KT 02/00 A3029 RMK A01 T00220004  RH  088%=      5-min Rain = 0
KCO2 082328Z 33005KT 02/00 A3029 RMK A01 T00220004  RH  088%=      5-min Rain = 0
KCO2 082329Z 33005KT 02/00 A3029 RMK A01 T00220004  RH  088%=      5-min Rain = 0
KCO2 082330Z 34005KT 02/00 A3029 RMK A01 T00220004  RH  088%=      5-min Rain = 0
KCO2 082331Z 34005KT 02/00 A3029 RMK A01 T00220004  RH  088%=      5-min Rain = 0
KCO2 082332Z 34005KT 02/00 A3029 RMK A01 T00220004  RH  088%=      5-min Rain = 0
KCO2 082333Z 34005KT 02/01 A3029 RMK A01 T00220005  RH  088%=      5-min Rain = 0
KCO2 082334Z 34005KT 02/00 A3029 RMK A01 T00220004  RH  088%=      5-min Rain = 0
KCO2 082335Z 34006KT 02/01 A3029 RMK A01 T00220005  RH  089%=      5-min Rain = 0
KCO2 082336Z 34006KT 02/01 A3029 RMK A01 T00220005  RH  089%=      5-min Rain = 0
KCO2 082337Z 34005KT 02/01 A3029 RMK A01 T00220005  RH  089%=      5-min Rain = 0
KCO2 082338Z 34005KT 02/01 A3029 RMK A01 T00220005  RH  089%=      5-min Rain = 0
KCO2 082339Z 34006KT 02/01 A3029 RMK A01 T00220005  RH  089%=      5-min Rain = 0
KCO2 082340Z 34006KT 02/01 A3029 RMK A01 T00220005  RH  089%=      5-min Rain = 0
KCO2 082341Z 34005KT 02/01 A3029 RMK A01 T00220005  RH  089%=      5-min Rain = 0
KCO2 082342Z 35005KT 02/01 A3029 RMK A01 T00220005  RH  089%=      5-min Rain = 0
KCO2 082343Z 35005KT 02/01 A3029 RMK A01 T00220005  RH  089%=      5-min Rain = 0
KCO2 082344Z 35005KT 02/01 A3029 RMK A01 T00220005  RH  089%=      5-min Rain = 0
KCO2 082345Z 34005KT 02/01 A3029 RMK A01 T00220005  RH  089%=      5-min Rain = 0
KCO2 082346Z 34005KT 02/01 A3029 RMK A01 T00220005  RH  089%=      5-min Rain = 0
KCO2 082347Z 34005KT 02/01 A3029 RMK A01 T00220005  RH  088%=      5-min Rain = 0
KCO2 082348Z 34006KT 02/01 A3029 RMK A01 T00220005  RH  088%=      5-min Rain = 0
KCO2 082349Z 34006KT 02/01 A3029 RMK A01 T00220005  RH  088%=      5-min Rain = 0
KCO2 082350Z 34006KT 02/01 A3029 RMK A01 T00220005  RH  088%=      5-min Rain = 0
KCO2 082351Z 33006KT 02/01 A3029 RMK A01 T00220005  RH  088%=      5-min Rain = 0
KCO2 082352Z 33006KT 02/00 A3029 RMK A01 T00220004  RH  088%=      5-min Rain = 0
KCO2 082353Z 33008KT 02/00 A3029 RMK A01 T00220003  RH  088%=      5-min Rain = 0
KCO2 082354Z 33007KT 02/00 A3029 RMK A01 T00220003  RH  087%=      5-min Rain = 0
KCO2 082355Z 34007KT 02/00 A3029 RMK A01 T00220003  RH  087%=      5-min Rain = 0
KCO2 082356Z 33006KT 02/00 A3029 RMK A01 T00220003  RH  087%=      5-min Rain = 0
KCO2 082357Z 34006KT 02/00 A3029 RMK A01 T00220003  RH  087%=      5-min Rain = 0
KCO2 082358Z 34006KT 02/00 A3029 RMK A01 T00220002  RH  087%=      5-min Rain = 0
KCO2 082359Z 34007KT 02/00 A3029 RMK A01 T00220003  RH  087%=      5-min Rain = 0
KCO2 090000Z 34006KT 02/00 A3029 RMK A01 T00210002  RH  087%=      5-min Rain = 0
KCO2 090001Z 35005KT 02/00 A3029 RMK A01 T00220002  RH  087%=      5-min Rain = 0
KCO2 090002Z 35005KT 02/00 A3029 RMK A01 T00210002  RH  087%=      5-min Rain = 0
KCO2 090003Z 35006KT 02/00 A3029 RMK A01 T00200002  RH  088%=      5-min Rain = 0
KCO2 090004Z 34006KT 02/00 A3029 RMK A01 T00200002  RH  088%=      5-min Rain = 0
KCO2 090005Z 35006KT 02/00 A3029 RMK A01 T00190002  RH  088%=      5-min Rain = 0
KCO2 090006Z 35005KT 02/00 A3029 RMK A01 T00190002  RH  089%=      5-min Rain = 0
KCO2 090007Z 35005KT 02/00 A3029 RMK A01 T00200003  RH  089%=      5-min Rain = 0
KCO2 090008Z 35004KT 02/00 A3029 RMK A01 T00200003  RH  089%=      5-min Rain = 0
KCO2 090009Z 35005KT 02/00 A3029 RMK A01 T00200003  RH  089%=      5-min Rain = 0
KCO2 090010Z 34004KT 02/00 A3029 RMK A01 T00200003  RH  089%=      5-min Rain = 0
KCO2 090011Z 34004KT 02/00 A3029 RMK A01 T00200003  RH  089%=      5-min Rain = 0
KCO2 090012Z 34005KT 02/00 A3029 RMK A01 T00210004  RH  089%=      5-min Rain = 0
KCO2 090013Z 34005KT 02/00 A3029 RMK A01 T00210003  RH  088%=      5-min Rain = 0
KCO2 090014Z 33005KT 02/00 A3029 RMK A01 T00210003  RH  088%=      5-min Rain = 0
KCO2 090015Z 33005KT 02/00 A3029 RMK A01 T00210003  RH  088%=      5-min Rain = 0
KCO2 090016Z 33005KT 02/00 A3029 RMK A01 T00210003  RH  088%=      5-min Rain = 0
KCO2 090017Z 33004KT 02/00 A3029 RMK A01 T00210003  RH  088%=      5-min Rain = 0
KCO2 090018Z 33004KT 02/00 A3029 RMK A01 T00210003  RH  088%=      5-min Rain = 0
KCO2 090019Z 33004KT 02/00 A3029 RMK A01 T00210003  RH  088%=      5-min Rain = 0
KCO2 090020Z 32004KT 02/00 A3029 RMK A01 T00210003  RH  088%=      5-min Rain = 0
KCO2 090021Z 32004KT 02/00 A3029 RMK A01 T00200002  RH  088%=      5-min Rain = 0
KCO2 090022Z 32004KT 02/00 A3029 RMK A01 T00200002  RH  088%=      5-min Rain = 0
KCO2 090023Z 32005KT 02/00 A3029 RMK A01 T00190002  RH  088%=      5-min Rain = 0
KCO2 090024Z 32004KT 02/00 A3029 RMK A01 T00190002  RH  088%=      5-min Rain = 0
KCO2 090025Z 32004KT 02/00 A3029 RMK A01 T00190001  RH  088%=      5-min Rain = 0
KCO2 090026Z 33004KT 02/00 A3029 RMK A01 T00180001  RH  088%=      5-min Rain = 0
KCO2 090027Z 33004KT 02/00 A3029 RMK A01 T00170000  RH  089%=      5-min Rain = 0
KCO2 090028Z 32004KT 02/00 A3029 RMK A01 T001600-0  RH  089%=      5-min Rain = 0
KCO2 090029Z 32004KT 02/M00 A3029 RMK A01 T00161001  RH  089%=      5-min Rain = 0
KCO2 090030Z 32004KT 02/M00 A3029 RMK A01 T00151001  RH  089%=      5-min Rain = 0
KCO2 090031Z 32004KT 01/M00 A3029 RMK A01 T00141001  RH  089%=      5-min Rain = 0
KCO2 090032Z 32004KT 01/M00 A3029 RMK A01 T00131002  RH  090%=      5-min Rain = 0
KCO2 090033Z 32004KT 01/M00 A303 RMK A01 T00131002  RH  090%=      5-min Rain = 0
KCO2 090034Z 32004KT 01/M00 A303 RMK A01 T00121002  RH  090%=      5-min Rain = 0
KCO2 090035Z 32004KT 01/M00 A303 RMK A01 T00121002  RH  090%=      5-min Rain = 0
KCO2 090036Z 32003KT 01/M00 A3029 RMK A01 T00111003  RH  091%=      5-min Rain = 0
KCO2 090037Z 31003KT 01/M00 A3029 RMK A01 T00111003  RH  091%=      5-min Rain = 0
KCO2 090038Z 31003KT 01/M00 A3029 RMK A01 T00101003  RH  091%=      5-min Rain = 0
KCO2 090039Z 31004KT 01/M00 A3029 RMK A01 T00101003  RH  091%=      5-min Rain = 0
KCO2 090040Z 31004KT 01/M00 A303 RMK A01 T00091003  RH  091%=      5-min Rain = 0
KCO2 090041Z 31004KT 01/M00 A303 RMK A01 T00091003  RH  092%=      5-min Rain = 0
KCO2 090042Z 31004KT 01/M00 A303 RMK A01 T00081004  RH  092%=      5-min Rain = 0
KCO2 090043Z 31004KT 01/M01 A303 RMK A01 T00071005  RH  092%=      5-min Rain = 0
KCO2 090044Z 31004KT 01/M01 A303 RMK A01 T00071005  RH  092%=      5-min Rain = 0
KCO2 090045Z 31004KT 01/M01 A303 RMK A01 T00061005  RH  092%=      5-min Rain = 0
KCO2 090046Z 30004KT 01/M01 A303 RMK A01 T00051006  RH  092%=      5-min Rain = 0
KCO2 090047Z 30004KT 01/M01 A303 RMK A01 T00051005  RH  093%=      5-min Rain = 0
KCO2 090048Z 30004KT 01/M01 A303 RMK A01 T00051005  RH  093%=      5-min Rain = 0
KCO2 090049Z 30004KT 01/M01 A303 RMK A01 T00051005  RH  093%=      5-min Rain = 0
KCO2 090050Z 31004KT 01/M01 A303 RMK A01 T00051005  RH  093%=      5-min Rain = 0
KCO2 090051Z 31004KT 01/M00 A303 RMK A01 T00051004  RH  093%=      5-min Rain = 0
KCO2 090052Z 31004KT 00/M01 A303 RMK A01 T00041005  RH  093%=      5-min Rain = 0
KCO2 090053Z 31005KT 00/M01 A303 RMK A01 T00041005  RH  093%=      5-min Rain = 0
KCO2 090054Z 31005KT 00/M01 A303 RMK A01 T00041005  RH  093%=      5-min Rain = 0
KCO2 090055Z 31004KT 00/M01 A303 RMK A01 T00041005  RH  094%=      5-min Rain = 0
KCO2 090056Z 31004KT 00/M01 A303 RMK A01 T00041005  RH  094%=      5-min Rain = 0
KCO2 090057Z 31005KT 00/M01 A303 RMK A01 T00041005  RH  094%=      5-min Rain = 0
KCO2 090058Z 31005KT 01/M00 A303 RMK A01 T00051004  RH  094%=      5-min Rain = 0
KCO2 090059Z 31005KT 01/M00 A303 RMK A01 T00051004  RH  094%=      5-min Rain = 0
KCO2 090100Z 31005KT 01/M00 A303 RMK A01 T00051003  RH  094%=      5-min Rain = 0
KCO2 090101Z 31005KT 01/M00 A3031 RMK A01 T00051003  RH  094%=      5-min Rain = 0
KCO2 090102Z 31005KT 01/M00 A3031 RMK A01 T00061002  RH  094%=      5-min Rain = 0
KCO2 090103Z 32005KT 01/M00 A3031 RMK A01 T00071001  RH  095%=      5-min Rain = 0
KCO2 090104Z 32005KT 01/00 A3031 RMK A01 T000700-0  RH  095%=      5-min Rain = 0
KCO2 090105Z 32005KT 01/00 A3031 RMK A01 T00080001  RH  095%=      5-min Rain = 0
KCO2 090106Z 32004KT 01/00 A3031 RMK A01 T00090001  RH  095%=      5-min Rain = 0
KCO2 090107Z 32004KT 01/00 A303 RMK A01 T00090002  RH  095%=      5-min Rain = 0
KCO2 090108Z 33004KT 01/00 A3031 RMK A01 T00100002  RH  095%=      5-min Rain = 0
KCO2 090109Z 33004KT 01/00 A3031 RMK A01 T00100002  RH  094%=      5-min Rain = 0
KCO2 090110Z 33003KT 01/00 A3031 RMK A01 T00100002  RH  094%=      5-min Rain = 0
KCO2 090111Z 33003KT 01/00 A3031 RMK A01 T00100002  RH  094%=      5-min Rain = 0
KCO2 090112Z 33003KT 01/00 A3031 RMK A01 T00100002  RH  094%=      5-min Rain = 0
KCO2 090113Z 33004KT 01/00 A3031 RMK A01 T00100001  RH  094%=      5-min Rain = 0
KCO2 090114Z 34004KT 01/00 A3031 RMK A01 T00100001  RH  094%=      5-min Rain = 0
KCO2 090115Z 34004KT 01/00 A3031 RMK A01 T00100001  RH  094%=      5-min Rain = 0
KCO2 090116Z 34004KT 01/00 A3031 RMK A01 T00100002  RH  094%=      5-min Rain = 0
KCO2 090117Z 34004KT 01/00 A3031 RMK A01 T00100001  RH  094%=      5-min Rain = 0
KCO2 090118Z 34004KT 01/00 A3031 RMK A01 T00100001  RH  094%=      5-min Rain = 0
KCO2 090119Z 33004KT 01/00 A3031 RMK A01 T00090000  RH  094%=      5-min Rain = 0
KCO2 090120Z 33004KT 01/00 A3031 RMK A01 T00090000  RH  094%=      5-min Rain = 0
KCO2 090121Z 33004KT 01/00 A3031 RMK A01 T000900-0  RH  094%=      5-min Rain = 0
KCO2 090122Z 33004KT 01/00 A3031 RMK A01 T000900-0  RH  094%=      5-min Rain = 0
KCO2 090123Z 33004KT 01/M00 A3031 RMK A01 T00081001  RH  094%=      5-min Rain = 0
KCO2 090124Z 33004KT 01/M00 A3031 RMK A01 T00071002  RH  094%=      5-min Rain = 0
KCO2 090125Z 32004KT 01/M00 A3031 RMK A01 T00071002  RH  094%=      5-min Rain = 0
KCO2 090126Z 32004KT 01/M00 A3031 RMK A01 T00071002  RH  094%=      5-min Rain = 0
KCO2 090127Z 32004KT 01/M00 A3031 RMK A01 T00061003  RH  094%=      5-min Rain = 0
KCO2 090128Z 33004KT 01/M00 A3031 RMK A01 T00051003  RH  094%=      5-min Rain = 0
KCO2 090129Z 33004KT 01/M00 A3031 RMK A01 T00051003  RH  094%=      5-min Rain = 0
KCO2 090130Z 33004KT 01/M00 A3031 RMK A01 T00051003  RH  094%=      5-min Rain = 0
KCO2 090131Z 33004KT 01/M00 A3031 RMK A01 T00051003  RH  094%=      5-min Rain = 0
KCO2 090132Z 33004KT 01/M00 A3031 RMK A01 T00051003  RH  094%=      5-min Rain = 0
KCO2 090133Z 33004KT 01/M00 A3031 RMK A01 T00051003  RH  095%=      5-min Rain = 0
KCO2 090134Z 33004KT 00/M00 A3031 RMK A01 T00041004  RH  095%=      5-min Rain = 0
KCO2 090135Z 33005KT 00/M00 A3031 RMK A01 T00031004  RH  095%=      5-min Rain = 0
KCO2 090136Z 33005KT 00/M01 A3031 RMK A01 T00031005  RH  095%=      5-min Rain = 0
KCO2 090137Z 33005KT 00/M01 A3031 RMK A01 T00031005  RH  095%=      5-min Rain = 0
KCO2 090138Z 33005KT 00/M01 A3031 RMK A01 T00021006  RH  095%=      5-min Rain = 0
KCO2 090139Z 33005KT 00/M01 A3031 RMK A01 T00011007  RH  094%=      5-min Rain = 0
KCO2 090140Z 33005KT 00/01 A3031 RMK A01 T00-000-8  RH  094%=      5-min Rain = 0
KCO2 090141Z 34005KT M00/M01 A3031 RMK A01 T10011009  RH  094%=      5-min Rain = 0
KCO2 090142Z 34005KT M00/M01 A3031 RMK A01 T10021010  RH  094%=      5-min Rain = 0
KCO2 090143Z 34005KT M00/M01 A3031 RMK A01 T10021010  RH  094%=      5-min Rain = 0
KCO2 090144Z 34005KT M00/M01 A3031 RMK A01 T10021010  RH  095%=      5-min Rain = 0
KCO2 090145Z 33005KT M00/M01 A3031 RMK A01 T10031011  RH  095%=      5-min Rain = 0
KCO2 090146Z 33005KT M00/M01 A3031 RMK A01 T10031010  RH  095%=      5-min Rain = 0
KCO2 090147Z 33005KT M00/M01 A3031 RMK A01 T10031010  RH  095%=      5-min Rain = 0
KCO2 090148Z 34005KT M00/M01 A3031 RMK A01 T10031010  RH  095%=      5-min Rain = 0
KCO2 090149Z 34004KT M00/M01 A3031 RMK A01 T10031009  RH  095%=      5-min Rain = 0
KCO2 090150Z 34005KT M00/M01 A3031 RMK A01 T10031009  RH  095%=      5-min Rain = 0
KCO2 090151Z 34004KT M00/M01 A3031 RMK A01 T10021009  RH  095%=      5-min Rain = 0
KCO2 090152Z 34004KT M00/M01 A3031 RMK A01 T10021008  RH  096%=      5-min Rain = 0
KCO2 090153Z 34004KT M00/M01 A3031 RMK A01 T10021009  RH  095%=      5-min Rain = 0
KCO2 090154Z 34004KT M00/M01 A3031 RMK A01 T10021009  RH  095%=      5-min Rain = 0
KCO2 090155Z 33004KT M00/M01 A3031 RMK A01 T10021008  RH  096%=      5-min Rain = 0
KCO2 090156Z 33004KT M00/M01 A3031 RMK A01 T10011007  RH  096%=      5-min Rain = 0
KCO2 090157Z 33003KT M00/M01 A3031 RMK A01 T10011007  RH  096%=      5-min Rain = 0
KCO2 090158Z 32003KT 00/01 A3031 RMK A01 T000000-6  RH  096%=      5-min Rain = 0
KCO2 090159Z 32003KT 00/M01 A3031 RMK A01 T00011005  RH  096%=      5-min Rain = 0
KCO2 090200Z 31003KT 00/M01 A3031 RMK A01 T00011006  RH  096%=      5-min Rain = 0
KCO2 090201Z 31003KT 00/M01 A3031 RMK A01 T00011006  RH  096%=      5-min Rain = 0
KCO2 090202Z 31003KT 00/01 A3031 RMK A01 T000000-6  RH  095%=      5-min Rain = 0
KCO2 090203Z 30004KT 00/01 A3031 RMK A01 T00-000-7  RH  095%=      5-min Rain = 0
KCO2 090204Z 30004KT 00/01 A3031 RMK A01 T00-000-7  RH  095%=      5-min Rain = 0
KCO2 090205Z 30004KT 00/01 A3031 RMK A01 T00-000-7  RH  095%=      5-min Rain = 0
KCO2 090206Z 31004KT M00/M01 A3031 RMK A01 T10011007  RH  095%=      5-min Rain = 0
KCO2 090207Z 30004KT M00/M01 A3031 RMK A01 T10011008  RH  095%=      5-min Rain = 0
KCO2 090208Z 30004KT M00/M01 A3031 RMK A01 T10021008  RH  095%=      5-min Rain = 0
KCO2 090209Z 30004KT M00/M01 A3031 RMK A01 T10021008  RH  095%=      5-min Rain = 0
KCO2 090210Z 30004KT M00/M01 A3031 RMK A01 T10021008  RH  095%=      5-min Rain = 0
KCO2 090211Z 31004KT M00/M01 A3031 RMK A01 T10021009  RH  095%=      5-min Rain = 0
KCO2 090212Z 31004KT M00/M01 A3031 RMK A01 T10031009  RH  095%=      5-min Rain = 0
KCO2 090213Z 30004KT M00/M01 A3031 RMK A01 T10041010  RH  095%=      5-min Rain = 0
KCO2 090214Z 30005KT M00/M01 A3031 RMK A01 T10041010  RH  096%=      5-min Rain = 0
KCO2 090215Z 30005KT M00/M01 A3031 RMK A01 T10031009  RH  096%=      5-min Rain = 0
KCO2 090216Z 30005KT M00/M01 A3031 RMK A01 T10031009  RH  096%=      5-min Rain = 0
KCO2 090217Z 31005KT M00/M01 A3031 RMK A01 T10041010  RH  096%=      5-min Rain = 0
KCO2 090218Z 31005KT M01/M01 A3031 RMK A01 T10051011  RH  096%=      5-min Rain = 0
KCO2 090219Z 30005KT M01/M01 A3031 RMK A01 T10051011  RH  096%=      5-min Rain = 0
KCO2 090220Z 31005KT M01/M01 A3031 RMK A01 T10051011  RH  096%=      5-min Rain = 0
KCO2 090221Z 31005KT M00/M01 A3031 RMK A01 T10041010  RH  096%=      5-min Rain = 0
KCO2 090222Z 31005KT M00/M01 A3031 RMK A01 T10041010  RH  096%=      5-min Rain = 0
KCO2 090223Z 30005KT M00/M01 A3031 RMK A01 T10041010  RH  096%=      5-min Rain = 0
KCO2 090224Z 30005KT M01/M01 A3031 RMK A01 T10051010  RH  096%=      5-min Rain = 0
KCO2 090225Z 30005KT M01/M01 A3031 RMK A01 T10051011  RH  096%=      5-min Rain = 0
KCO2 090226Z 30006KT M01/M01 A3031 RMK A01 T10061012  RH  096%=      5-min Rain = 0
KCO2 090227Z 30006KT M01/M01 A3031 RMK A01 T10061012  RH  096%=      5-min Rain = 0
KCO2 090228Z 30006KT M01/M01 A3031 RMK A01 T10061012  RH  096%=      5-min Rain = 0
KCO2 090229Z 30005KT M01/M01 A3032 RMK A01 T10061012  RH  096%=      5-min Rain = 0
KCO2 090230Z 30005KT M01/M01 A3032 RMK A01 T10071012  RH  096%=      5-min Rain = 0
KCO2 090231Z 30005KT M01/M01 A3032 RMK A01 T10071013  RH  096%=      5-min Rain = 0
KCO2 090232Z 30005KT M01/M01 A3032 RMK A01 T10071013  RH  096%=      5-min Rain = 0
KCO2 090233Z 30005KT M01/M01 A3032 RMK A01 T10071013  RH  096%=      5-min Rain = 0
KCO2 090234Z 30005KT M01/M01 A3032 RMK A01 T10071013  RH  096%=      5-min Rain = 0
KCO2 090235Z 30005KT M01/M01 A3032 RMK A01 T10071013  RH  096%=      5-min Rain = 0
KCO2 090236Z 30005KT M01/M01 A3032 RMK A01 T10071013  RH  096%=      5-min Rain = 0
KCO2 090237Z 30005KT M01/M01 A3032 RMK A01 T10071013  RH  096%=      5-min Rain = 0
KCO2 090238Z 30005KT M01/M01 A3032 RMK A01 T10071012  RH  096%=      5-min Rain = 0
KCO2 090239Z 31005KT M01/M01 A3032 RMK A01 T10071012  RH  096%=      5-min Rain = 0
KCO2 090240Z 31005KT M01/M01 A3032 RMK A01 T10071012  RH  096%=      5-min Rain = 0
KCO2 090241Z 31005KT M01/M01 A3032 RMK A01 T10061012  RH  096%=      5-min Rain = 0
KCO2 090242Z 31005KT M01/M01 A3032 RMK A01 T10071012  RH  096%=      5-min Rain = 0
KCO2 090243Z 31005KT M01/M01 A3032 RMK A01 T10071012  RH  096%=      5-min Rain = 0
KCO2 090244Z 31005KT M01/M01 A3032 RMK A01 T10081013  RH  096%=      5-min Rain = 0
KCO2 090245Z 31005KT M01/M01 A3032 RMK A01 T10081013  RH  096%=      5-min Rain = 0
KCO2 090246Z 31005KT M01/M01 A3032 RMK A01 T10081013  RH  096%=      5-min Rain = 0
KCO2 090247Z 31005KT M01/M01 A3032 RMK A01 T10081013  RH  096%=      5-min Rain = 0
KCO2 090248Z 32005KT M01/M01 A3032 RMK A01 T10081013  RH  096%=      5-min Rain = 0
KCO2 090249Z 32006KT M01/M01 A3032 RMK A01 T10081013  RH  096%=      5-min Rain = 0
KCO2 090250Z 32006KT M01/M01 A3032 RMK A01 T10081013  RH  096%=      5-min Rain = 0
KCO2 090251Z 32006KT M01/M01 A3032 RMK A01 T10081013  RH  096%=      5-min Rain = 0
KCO2 090252Z 32006KT M01/M01 A3032 RMK A01 T10081013  RH  097%=      5-min Rain = 0
KCO2 090253Z 32006KT M01/M01 A3032 RMK A01 T10081013  RH  097%=      5-min Rain = 0
KCO2 090254Z 32006KT M01/M01 A3032 RMK A01 T10071012  RH  097%=      5-min Rain = 0
KCO2 090255Z 33006KT M01/M01 A3032 RMK A01 T10071011  RH  097%=      5-min Rain = 0
KCO2 090256Z 33006KT M01/M01 A3032 RMK A01 T10061011  RH  097%=      5-min Rain = 0
KCO2 090257Z 33006KT M01/M01 A3032 RMK A01 T10061011  RH  096%=      5-min Rain = 0
KCO2 090258Z 33006KT M01/M01 A3032 RMK A01 T10061011  RH  096%=      5-min Rain = 0
KCO2 090259Z 33005KT M01/M01 A3032 RMK A01 T10061011  RH  096%=      5-min Rain = 0
KCO2 090300Z 33006KT M01/M01 A3032 RMK A01 T10051011  RH  096%=      5-min Rain = 0
KCO2 090301Z 33006KT M01/M01 A3032 RMK A01 T10051011  RH  096%=      5-min Rain = 0
KCO2 090302Z 34005KT M01/M01 A3032 RMK A01 T10051010  RH  096%=      5-min Rain = 0
KCO2 090303Z 34005KT M01/M01 A3032 RMK A01 T10051010  RH  096%=      5-min Rain = 0
KCO2 090304Z 34005KT M01/M01 A3032 RMK A01 T10051011  RH  096%=      5-min Rain = 0
KCO2 090305Z 34005KT M01/M01 A3032 RMK A01 T10051012  RH  095%=      5-min Rain = 0
KCO2 090306Z 34005KT M01/M01 A3032 RMK A01 T10051012  RH  095%=      5-min Rain = 0
KCO2 090307Z 33005KT M01/M01 A3032 RMK A01 T10061013  RH  095%=      5-min Rain = 0
KCO2 090308Z 33005KT M01/M01 A3032 RMK A01 T10071014  RH  095%=      5-min Rain = 0
KCO2 090309Z 33005KT M01/M01 A3032 RMK A01 T10071014  RH  095%=      5-min Rain = 0
KCO2 090310Z 33005KT M01/M02 A3032 RMK A01 T10081015  RH  095%=      5-min Rain = 0
KCO2 090311Z 33005KT M01/M02 A3032 RMK A01 T10081015  RH  095%=      5-min Rain = 0
KCO2 090312Z 33005KT M01/M02 A3032 RMK A01 T10091016  RH  095%=      5-min Rain = 0
KCO2 090313Z 33005KT M01/M02 A3032 RMK A01 T10091017  RH  095%=      5-min Rain = 0
KCO2 090314Z 34005KT M01/M02 A3032 RMK A01 T10101018  RH  095%=      5-min Rain = 0
KCO2 090315Z 34005KT M01/M02 A3032 RMK A01 T10111018  RH  095%=      5-min Rain = 0
KCO2 090316Z 34005KT M01/M02 A3032 RMK A01 T10111018  RH  095%=      5-min Rain = 0
KCO2 090317Z 33005KT M01/M02 A3032 RMK A01 T10111018  RH  095%=      5-min Rain = 0
KCO2 090318Z 33006KT M01/M02 A3032 RMK A01 T10111018  RH  095%=      5-min Rain = 0
KCO2 090319Z 33006KT M01/M02 A3032 RMK A01 T10111018  RH  095%=      5-min Rain = 0
KCO2 090320Z 33006KT M01/M02 A3032 RMK A01 T10111018  RH  095%=      5-min Rain = 0
KCO2 090321Z 33006KT M01/M02 A3032 RMK A01 T10111017  RH  095%=      5-min Rain = 0
KCO2 090322Z 33006KT M01/M02 A3032 RMK A01 T10111017  RH  095%=      5-min Rain = 0
KCO2 090323Z 33005KT M01/M02 A3032 RMK A01 T10101017  RH  095%=      5-min Rain = 0
KCO2 090324Z 33006KT M01/M02 A3032 RMK A01 T10101016  RH  096%=      5-min Rain = 0
KCO2 090325Z 33005KT M01/M02 A3032 RMK A01 T10101016  RH  096%=      5-min Rain = 0
KCO2 090326Z 32005KT M01/M02 A3032 RMK A01 T10101016  RH  095%=      5-min Rain = 0
KCO2 090327Z 32005KT M01/M02 A3032 RMK A01 T10101016  RH  095%=      5-min Rain = 0
KCO2 090328Z 32005KT M01/M02 A3032 RMK A01 T10101016  RH  095%=      5-min Rain = 0
KCO2 090329Z 32005KT M01/M02 A3032 RMK A01 T10101017  RH  095%=      5-min Rain = 0
KCO2 090330Z 32005KT M01/M02 A3032 RMK A01 T10101017  RH  095%=      5-min Rain = 0
KCO2 090331Z 33005KT M01/M02 A3032 RMK A01 T10101016  RH  095%=      5-min Rain = 0
KCO2 090332Z 33005KT M01/M02 A3032 RMK A01 T10091015  RH  096%=      5-min Rain = 0
KCO2 090333Z 33005KT M01/M02 A3032 RMK A01 T10091015  RH  096%=      5-min Rain = 0
KCO2 090334Z 33005KT M01/M02 A3032 RMK A01 T10091015  RH  096%=      5-min Rain = 0
KCO2 090335Z 33005KT M01/M02 A3032 RMK A01 T10091015  RH  096%=      5-min Rain = 0
KCO2 090336Z 32005KT M01/M02 A3032 RMK A01 T10091015  RH  096%=      5-min Rain = 0
KCO2 090337Z 33005KT M01/M02 A3032 RMK A01 T10091015  RH  096%=      5-min Rain = 0
KCO2 090338Z 33005KT M01/M02 A3032 RMK A01 T10091015  RH  096%=      5-min Rain = 0
KCO2 090339Z 33005KT M01/M01 A3032 RMK A01 T10081014  RH  096%=      5-min Rain = 0
KCO2 090340Z 33005KT M01/M02 A3032 RMK A01 T10081015  RH  095%=      5-min Rain = 0
KCO2 090341Z 33004KT M01/M02 A3032 RMK A01 T10081015  RH  095%=      5-min Rain = 0
KCO2 090342Z 33004KT M01/M02 A3032 RMK A01 T10081015  RH  095%=      5-min Rain = 0
KCO2 090343Z 33004KT M01/M02 A3033 RMK A01 T10081015  RH  095%=      5-min Rain = 0
KCO2 090344Z 34004KT M01/M02 A3033 RMK A01 T10091015  RH  095%=      5-min Rain = 0
KCO2 090345Z 34004KT M01/M02 A3033 RMK A01 T10091016  RH  095%=      5-min Rain = 0
KCO2 090346Z 34004KT M01/M02 A3033 RMK A01 T10091016  RH  095%=      5-min Rain = 0
KCO2 090347Z 34005KT M01/M02 A3032 RMK A01 T10091016  RH  095%=      5-min Rain = 0
KCO2 090348Z 34005KT M01/M02 A3032 RMK A01 T10091016  RH  095%=      5-min Rain = 0
KCO2 090349Z 35005KT M01/M02 A3032 RMK A01 T10101017  RH  095%=      5-min Rain = 0
KCO2 090350Z 35005KT M01/M02 A3032 RMK A01 T10101017  RH  095%=      5-min Rain = 0
KCO2 090351Z 35005KT M01/M02 A3032 RMK A01 T10101017  RH  095%=      5-min Rain = 0
KCO2 090352Z 35006KT M01/M02 A3032 RMK A01 T10101017  RH  095%=      5-min Rain = 0
KCO2 090353Z 35005KT M01/M02 A3032 RMK A01 T10101016  RH  095%=      5-min Rain = 0
KCO2 090354Z 34005KT M01/M02 A3032 RMK A01 T10091016  RH  095%=      5-min Rain = 0
KCO2 090355Z 34005KT M01/M02 A3032 RMK A01 T10101016  RH  095%=      5-min Rain = 0
KCO2 090356Z 34005KT M01/M02 A3032 RMK A01 T10091016  RH  095%=      5-min Rain = 0
KCO2 090357Z 34005KT M01/M02 A3032 RMK A01 T10091016  RH  095%=      5-min Rain = 0
KCO2 090358Z 34005KT M01/M02 A3032 RMK A01 T10101016  RH  095%=      5-min Rain = 0
KCO2 090359Z 34005KT M01/M02 A3032 RMK A01 T10101017  RH  095%=      5-min Rain = 0
KCO2 090400Z 33005KT M01/M02 A3032 RMK A01 T10101017  RH  095%=      5-min Rain = 0
KCO2 090401Z 33005KT M01/M02 A3032 RMK A01 T10101017  RH  095%=      5-min Rain = 0
KCO2 090402Z 33005KT M01/M02 A3032 RMK A01 T10101017  RH  095%=      5-min Rain = 0
KCO2 090403Z 33005KT M01/M02 A3032 RMK A01 T10101017  RH  095%=      5-min Rain = 0
KCO2 090404Z 33005KT M01/M02 A3032 RMK A01 T10111017  RH  095%=      5-min Rain = 0
KCO2 090405Z 33005KT M01/M02 A3032 RMK A01 T10101017  RH  095%=      5-min Rain = 0
KCO2 090406Z 33004KT M01/M02 A3033 RMK A01 T10101017  RH  095%=      5-min Rain = 0
KCO2 090407Z 33004KT M01/M02 A3033 RMK A01 T10111018  RH  095%=      5-min Rain = 0
KCO2 090408Z 34004KT M01/M02 A3033 RMK A01 T10111018  RH  095%=      5-min Rain = 0
KCO2 090409Z 33004KT M01/M02 A3033 RMK A01 T10111018  RH  095%=      5-min Rain = 0
KCO2 090410Z 34004KT M01/M02 A3033 RMK A01 T10111018  RH  095%=      5-min Rain = 0
KCO2 090411Z 34004KT M01/M02 A3033 RMK A01 T10111018  RH  095%=      5-min Rain = 0
KCO2 090412Z 34004KT M01/M02 A3033 RMK A01 T10111018  RH  095%=      5-min Rain = 0
KCO2 090413Z 34005KT M01/M02 A3033 RMK A01 T10111018  RH  095%=      5-min Rain = 0
KCO2 090414Z 34005KT M01/M02 A3033 RMK A01 T10111018  RH  095%=      5-min Rain = 0
KCO2 090415Z 34005KT M01/M02 A3033 RMK A01 T10121018  RH  095%=      5-min Rain = 0
KCO2 090416Z 34005KT M01/M02 A3033 RMK A01 T10121019  RH  095%=      5-min Rain = 0
KCO2 090417Z 34005KT M01/M02 A3033 RMK A01 T10121019  RH  095%=      5-min Rain = 0
KCO2 090418Z 33005KT M01/M02 A3033 RMK A01 T10131020  RH  095%=      5-min Rain = 0
KCO2 090419Z 33005KT M01/M02 A3033 RMK A01 T10131020  RH  095%=      5-min Rain = 0
KCO2 090420Z 33005KT M01/M02 A3033 RMK A01 T10131020  RH  095%=      5-min Rain = 0
KCO2 090421Z 34005KT M01/M02 A3033 RMK A01 T10141020  RH  095%=      5-min Rain = 0
KCO2 090422Z 34005KT M01/M02 A3033 RMK A01 T10141021  RH  095%=      5-min Rain = 0
KCO2 090423Z 34005KT M01/M02 A3033 RMK A01 T10141021  RH  095%=      5-min Rain = 0
KCO2 090424Z 33005KT M01/M02 A3033 RMK A01 T10141020  RH  095%=      5-min Rain = 0
KCO2 090425Z 33005KT M01/M02 A3033 RMK A01 T10141020  RH  095%=      5-min Rain = 0
KCO2 090426Z 33005KT M01/M02 A3033 RMK A01 T10141020  RH  096%=      5-min Rain = 0
KCO2 090427Z 33006KT M01/M02 A3033 RMK A01 T10141020  RH  096%=      5-min Rain = 0
KCO2 090428Z 34006KT M01/M02 A3033 RMK A01 T10131019  RH  096%=      5-min Rain = 0
KCO2 090429Z 34006KT M01/M02 A3033 RMK A01 T10131019  RH  096%=      5-min Rain = 0
KCO2 090430Z 34006KT M01/M02 A3033 RMK A01 T10131019  RH  096%=      5-min Rain = 0
KCO2 090431Z 34006KT M01/M02 A3033 RMK A01 T10131019  RH  096%=      5-min Rain = 0
KCO2 090432Z 34006KT M01/M02 A3033 RMK A01 T10131019  RH  096%=      5-min Rain = 0
KCO2 090433Z 34006KT M01/M02 A3033 RMK A01 T10131019  RH  096%=      5-min Rain = 0
KCO2 090434Z 34006KT M01/M02 A3033 RMK A01 T10131019  RH  096%=      5-min Rain = 0
KCO2 090435Z 34006KT M01/M02 A3033 RMK A01 T10131019  RH  096%=      5-min Rain = 0
KCO2 090436Z 34006KT M01/M02 A3033 RMK A01 T10131019  RH  096%=      5-min Rain = 0
KCO2 090437Z 34006KT M01/M02 A3033 RMK A01 T10131019  RH  096%=      5-min Rain = 0
KCO2 090438Z 34006KT M01/M02 A3033 RMK A01 T10131019  RH  096%=      5-min Rain = 0
KCO2 090439Z 34006KT M01/M02 A3033 RMK A01 T10131019  RH  096%=      5-min Rain = 0
KCO2 090440Z 34006KT M01/M02 A3033 RMK A01 T10131019  RH  096%=      5-min Rain = 0
KCO2 090441Z 34006KT M01/M02 A3033 RMK A01 T10131019  RH  096%=      5-min Rain = 0
KCO2 090442Z 34006KT M01/M02 A3033 RMK A01 T10131019  RH  096%=      5-min Rain = 0
KCO2 090443Z 35005KT M01/M02 A3033 RMK A01 T10131019  RH  096%=      5-min Rain = 0
KCO2 090444Z 35005KT M01/M02 A3033 RMK A01 T10131020  RH  095%=      5-min Rain = 0
KCO2 090445Z 35005KT M01/M02 A3033 RMK A01 T10131020  RH  095%=      5-min Rain = 0
KCO2 090446Z 35005KT M01/M02 A3033 RMK A01 T10131019  RH  096%=      5-min Rain = 0
KCO2 090447Z 35005KT M01/M02 A3033 RMK A01 T10131019  RH  096%=      5-min Rain = 0
KCO2 090448Z 35004KT M01/M02 A3033 RMK A01 T10131019  RH  096%=      5-min Rain = 0
KCO2 090449Z 36005KT M01/M02 A3033 RMK A01 T10131019  RH  096%=      5-min Rain = 0
KCO2 090450Z 36005KT M01/M02 A3033 RMK A01 T10131019  RH  096%=      5-min Rain = 0
KCO2 090451Z 36005KT M01/M02 A3034 RMK A01 T10121018  RH  096%=      5-min Rain = 0
KCO2 090452Z 36005KT M01/M02 A3034 RMK A01 T10121018  RH  096%=      5-min Rain = 0
KCO2 090453Z 00005KT M01/M02 A3033 RMK A01 T10131018  RH  096%=      5-min Rain = 0
KCO2 090454Z 00005KT M01/M02 A3033 RMK A01 T10131019  RH  096%=      5-min Rain = 0
KCO2 090455Z 00005KT M01/M02 A3033 RMK A01 T10131018  RH  096%=      5-min Rain = 0
KCO2 090456Z 36005KT M01/M02 A3033 RMK A01 T10121018  RH  096%=      5-min Rain = 0
KCO2 090457Z 36005KT M01/M02 A3033 RMK A01 T10121018  RH  096%=      5-min Rain = 0
KCO2 090458Z 36005KT M01/M02 A3033 RMK A01 T10121018  RH  096%=      5-min Rain = 0
KCO2 090459Z 36005KT M01/M02 A3033 RMK A01 T10121018  RH  096%=      5-min Rain = 0
KCO2 090500Z 00005KT M01/M02 A3033 RMK A01 T10121018  RH  096%=      5-min Rain = 0
KCO2 090501Z 00005KT M01/M02 A3033 RMK A01 T10121018  RH  096%=      5-min Rain = 0
KCO2 090502Z 00005KT M01/M02 A3033 RMK A01 T10121018  RH  096%=      5-min Rain = 0
KCO2 090503Z 00005KT M01/M02 A3033 RMK A01 T10121018  RH  096%=      5-min Rain = 0
KCO2 090504Z 00005KT M01/M02 A3033 RMK A01 T10131018  RH  096%=      5-min Rain = 0
KCO2 090505Z 00005KT M01/M02 A3033 RMK A01 T10131018  RH  096%=      5-min Rain = 0
KCO2 090506Z 01005KT M01/M02 A3033 RMK A01 T10121018  RH  096%=      5-min Rain = 0
KCO2 090507Z 00005KT M01/M02 A3033 RMK A01 T10131018  RH  096%=      5-min Rain = 0
KCO2 090508Z 00005KT M01/M02 A3033 RMK A01 T10131018  RH  096%=      5-min Rain = 0
KCO2 090509Z 00005KT M01/M02 A3033 RMK A01 T10131018  RH  096%=      5-min Rain = 0
KCO2 090510Z 00006KT M01/M02 A3033 RMK A01 T10131018  RH  096%=      5-min Rain = 0
KCO2 090511Z 01006KT M01/M02 A3033 RMK A01 T10131018  RH  096%=      5-min Rain = 0
KCO2 090512Z 01005KT M01/M02 A3033 RMK A01 T10131018  RH  096%=      5-min Rain = 0
KCO2 090513Z 01005KT M01/M02 A3033 RMK A01 T10131018  RH  096%=      5-min Rain = 0
KCO2 090514Z 01005KT M01/M02 A3033 RMK A01 T10131018  RH  096%=      5-min Rain = 0
KCO2 090515Z 01005KT M01/M02 A3033 RMK A01 T10131018  RH  096%=      5-min Rain = 0
KCO2 090516Z 01005KT M01/M02 A3033 RMK A01 T10131018  RH  096%=      5-min Rain = 0
KCO2 090517Z 01005KT M01/M02 A3033 RMK A01 T10131018  RH  096%=      5-min Rain = 0
KCO2 090518Z 00005KT M01/M02 A3033 RMK A01 T10131018  RH  096%=      5-min Rain = 0
KCO2 090519Z 00005KT M01/M02 A3033 RMK A01 T10131018  RH  096%=      5-min Rain = 0
KCO2 090520Z 00005KT M01/M02 A3033 RMK A01 T10131018  RH  096%=      5-min Rain = 0
KCO2 090521Z 00005KT M01/M02 A3033 RMK A01 T10131018  RH  096%=      5-min Rain = 0
KCO2 090522Z 00005KT M01/M02 A3033 RMK A01 T10131018  RH  096%=      5-min Rain = 0
KCO2 090523Z 36006KT M01/M02 A3033 RMK A01 T10131018  RH  096%=      5-min Rain = 0
KCO2 090524Z 35006KT M01/M02 A3033 RMK A01 T10131019  RH  096%=      5-min Rain = 0
KCO2 090525Z 35006KT M01/M02 A3033 RMK A01 T10131019  RH  096%=      5-min Rain = 0
KCO2 090526Z 35006KT M01/M02 A3033 RMK A01 T10141019  RH  096%=      5-min Rain = 0
KCO2 090527Z 35006KT M01/M02 A3033 RMK A01 T10141019  RH  096%=      5-min Rain = 0
KCO2 090528Z 34006KT M01/M02 A3033 RMK A01 T10141019  RH  096%=      5-min Rain = 0
KCO2 090529Z 34006KT M01/M02 A3033 RMK A01 T10141020  RH  096%=      5-min Rain = 0
KCO2 090530Z 35006KT M02/M02 A3033 RMK A01 T10151020  RH  096%=      5-min Rain = 0
KCO2 090531Z 35006KT M02/M02 A3033 RMK A01 T10151020  RH  096%=      5-min Rain = 0
KCO2 090532Z 35006KT M01/M02 A3033 RMK A01 T10141020  RH  096%=      5-min Rain = 0
KCO2 090533Z 35006KT M02/M02 A3033 RMK A01 T10151020  RH  096%=      5-min Rain = 0
KCO2 090534Z 35006KT M02/M02 A3033 RMK A01 T10151020  RH  096%=      5-min Rain = 0
KCO2 090535Z 35006KT M02/M02 A3033 RMK A01 T10151020  RH  096%=      5-min Rain = 0
KCO2 090536Z 35006KT M02/M02 A3033 RMK A01 T10151020  RH  096%=      5-min Rain = 0
KCO2 090537Z 35006KT M02/M02 A3033 RMK A01 T10151020  RH  096%=      5-min Rain = 0
KCO2 090538Z 35005KT M02/M02 A3033 RMK A01 T10151020  RH  096%=      5-min Rain = 0
KCO2 090539Z 35005KT M02/M02 A3033 RMK A01 T10151020  RH  096%=      5-min Rain = 0
KCO2 090540Z 35005KT M02/M02 A3033 RMK A01 T10151020  RH  096%=      5-min Rain = 0
KCO2 090541Z 34005KT M02/M02 A3033 RMK A01 T10151021  RH  096%=      5-min Rain = 0
KCO2 090542Z 35005KT M02/M02 A3033 RMK A01 T10151021  RH  096%=      5-min Rain = 0
KCO2 090543Z 35005KT M02/M02 A3033 RMK A01 T10151021  RH  096%=      5-min Rain = 0
KCO2 090544Z 35005KT M02/M02 A3033 RMK A01 T10161021  RH  096%=      5-min Rain = 0
KCO2 090545Z 36005KT M02/M02 A3033 RMK A01 T10161021  RH  096%=      5-min Rain = 0
KCO2 090546Z 00004KT M02/M02 A3033 RMK A01 T10151021  RH  096%=      5-min Rain = 0
KCO2 090547Z 00005KT M02/M02 A3033 RMK A01 T10161021  RH  096%=      5-min Rain = 0
KCO2 090548Z 00005KT M02/M02 A3033 RMK A01 T10151020  RH  096%=      5-min Rain = 0
KCO2 090549Z 00005KT M02/M02 A3033 RMK A01 T10151020  RH  096%=      5-min Rain = 0
KCO2 090550Z 36005KT M02/M02 A3033 RMK A01 T10151020  RH  096%=      5-min Rain = 0
KCO2 090551Z 35005KT M02/M02 A3033 RMK A01 T10151020  RH  096%=      5-min Rain = 0
KCO2 090552Z 35005KT M02/M02 A3033 RMK A01 T10161021  RH  096%=      5-min Rain = 0
KCO2 090553Z 35005KT M02/M02 A3033 RMK A01 T10161021  RH  096%=      5-min Rain = 0
KCO2 090554Z 35004KT M02/M02 A3033 RMK A01 T10161022  RH  096%=      5-min Rain = 0
KCO2 090555Z 35004KT M02/M02 A3033 RMK A01 T10171022  RH  096%=      5-min Rain = 0
KCO2 090556Z 35004KT M02/M02 A3033 RMK A01 T10171022  RH  096%=      5-min Rain = 0
KCO2 090557Z 35004KT M02/M02 A3033 RMK A01 T10171022  RH  096%=      5-min Rain = 0
KCO2 090558Z 34004KT M02/M02 A3033 RMK A01 T10181023  RH  096%=      5-min Rain = 0
KCO2 090559Z 34005KT M02/M02 A3033 RMK A01 T10181023  RH  096%=      5-min Rain = 0

Page generated in 0.0766 seconds.